[[{"header":{"parameterUnit":"m.s-1","parameterCategory":1,"la1":30.6,"la2":29.2853,"lo1":-89.7004,"lo2":-87.6739,"dy":0.0162,"dx":0.0183,"nx":112,"ny":82,"refTime":"2025-11-05T12:00:00:Z","depth":0,"parameterNumber":2,"parameterNumberName":"U-component_of_WINDS"},"data":[0.0,0.0,0.0,0.0,0.0,0.0,0.0,0.0,0.0,0.0,0.0,0.0,0.0,0.0,0.0,0.0,0.0,0.0,0.0,0.0,0.0,0.0,0.0,0.0,0.0,0.0,0.0,0.0,0.0,0.0,0.0,0.0,0.0,0.0,0.0,0.0,0.0,0.0,0.0,0.0,0.0,0.0,0.0,0.0,0.0,0.0,0.0,0.0,0.0,0.0,0.0,0.0,0.0,0.0,0.0,0.0,0.0,0.0,0.0,0.0,0.0,0.0,0.0,0.0,0.0,0.0,0.0,0.0,0.0,0.0,0.0,0.0,0.0,0.0,0.0,0.0,0.0,0.0,0.0,0.0,0.0,0.0,0.0,0.0,0.0,0.0,0.0,0.0,0.0,0.0,0.0,0.0,7.94,8.317,8.2554,8.2131,7.8746,7.136,0.0,0.0,0.0,0.0,0.0,0.0,0.0,0.0,0.0,0.0,0.0,0.0,0.0,0.0,0.0,0.0,0.0,0.0,0.0,0.0,0.0,0.0,0.0,0.0,0.0,0.0,0.0,0.0,0.0,0.0,0.0,0.0,0.0,0.0,0.0,0.0,0.0,0.0,0.0,0.0,0.0,0.0,0.0,0.0,0.0,0.0,0.0,0.0,0.0,0.0,0.0,0.0,0.0,0.0,0.0,0.0,0.0,0.0,0.0,0.0,0.0,0.0,0.0,0.0,0.0,0.0,0.0,0.0,0.0,0.0,0.0,0.0,0.0,0.0,0.0,0.0,0.0,0.0,0.0,0.0,0.0,0.0,0.0,0.0,0.0,0.0,0.0,0.0,0.0,0.0,0.0,0.0,0.0,0.0,0.0,0.0,0.0,0.0,0.0,0.0,0.0,0.0,0.0,0.0,6.8359,7.7669,8.0977,8.2747,8.3362,8.1439,7.7515,7.1283,0.0,0.0,0.0,0.0,0.0,0.0,0.0,0.0,0.0,0.0,0.0,0.0,0.0,0.0,0.0,0.0,0.0,0.0,0.0,0.0,0.0,0.0,0.0,0.0,0.0,0.0,0.0,0.0,0.0,0.0,0.0,0.0,0.0,0.0,0.0,0.0,0.0,0.0,0.0,0.0,0.0,0.0,0.0,0.0,0.0,0.0,0.0,0.0,0.0,0.0,0.0,0.0,0.0,0.0,0.0,0.0,0.0,0.0,0.0,0.0,0.0,0.0,0.0,0.0,0.0,0.0,0.0,0.0,0.0,0.0,0.0,0.0,0.0,0.0,0.0,0.0,0.0,0.0,0.0,0.0,0.0,0.0,0.0,0.0,0.0,0.0,0.0,0.0,0.0,0.0,0.0,0.0,0.0,0.0,0.0,0.0,0.0,0.0,0.0,0.0,0.0,0.0,0.0,6.7475,7.1898,8.0246,8.1823,8.2631,8.3516,8.1246,7.7246,7.1283,6.8462,0.0,0.0,0.0,0.0,0.0,0.0,0.0,0.0,0.0,0.0,0.0,0.0,0.0,0.0,0.0,0.0,0.0,0.0,0.0,0.0,0.0,0.0,0.0,0.0,0.0,0.0,0.0,0.0,0.0,0.0,0.0,0.0,0.0,0.0,0.0,0.0,0.0,0.0,0.0,0.0,0.0,0.0,0.0,0.0,0.0,0.0,0.0,0.0,0.0,0.0,0.0,0.0,0.0,0.0,0.0,0.0,0.0,0.0,0.0,0.0,0.0,0.0,0.0,0.0,0.0,0.0,0.0,0.0,0.0,0.0,0.0,0.0,0.0,0.0,0.0,0.0,0.0,0.0,0.0,0.0,0.0,0.0,0.0,0.0,0.0,0.0,0.0,0.0,0.0,0.0,0.0,0.0,0.0,0.0,0.0,0.0,0.0,0.0,0.0,0.0,0.0,0.0,7.1734,7.5428,8.1362,8.2047,8.2317,8.2939,8.0131,7.6015,7.0695,6.6434,0.0,0.0,0.0,0.0,0.0,0.0,0.0,0.0,0.0,0.0,0.0,0.0,0.0,0.0,0.0,0.0,0.0,0.0,0.0,0.0,0.0,0.0,0.0,0.0,0.0,0.0,0.0,0.0,0.0,0.0,0.0,0.0,0.0,0.0,0.0,0.0,0.0,0.0,0.0,0.0,0.0,0.0,0.0,0.0,0.0,0.0,0.0,0.0,0.0,0.0,0.0,0.0,0.0,0.0,0.0,0.0,0.0,0.0,0.0,0.0,0.0,0.0,0.0,0.0,0.0,0.0,0.0,0.0,0.0,0.0,0.0,0.0,0.0,0.0,0.0,0.0,0.0,0.0,0.0,0.0,0.0,0.0,0.0,0.0,0.0,0.0,0.0,0.0,0.0,0.0,0.0,0.0,0.0,0.0,0.0,0.0,0.0,0.0,0.0,0.0,0.0,0.0,7.1838,7.7218,8.0785,8.1231,8.13,8.1285,7.6784,7.2426,6.8899,6.2551,0.0,0.0,0.0,0.0,0.0,0.0,0.0,0.0,0.0,0.0,0.0,0.0,0.0,0.0,0.0,0.0,0.0,0.0,0.0,0.0,0.0,0.0,0.0,0.0,0.0,0.0,0.0,0.0,0.0,0.0,0.0,0.0,0.0,0.0,0.0,0.0,0.0,0.0,0.0,0.0,0.0,0.0,0.0,0.0,0.0,0.0,0.0,0.0,0.0,0.0,0.0,0.0,0.0,0.0,0.0,0.0,0.0,0.0,0.0,0.0,0.0,0.0,0.0,0.0,0.0,0.0,0.0,0.0,0.0,0.0,0.0,0.0,0.0,0.0,0.0,0.0,0.0,0.0,0.0,0.0,0.0,0.0,0.0,0.0,0.0,0.0,0.0,0.0,0.0,0.0,0.0,0.0,0.0,0.0,0.0,0.0,0.0,0.0,0.0,0.0,0.0,0.0,7.1159,7.5887,0.0,8.108,8.0656,8.1167,7.7505,7.3266,6.8858,0.0,0.0,0.0,0.0,0.0,0.0,0.0,0.0,0.0,0.0,0.0,0.0,0.0,0.0,0.0,0.0,0.0,0.0,0.0,0.0,0.0,0.0,0.0,0.0,0.0,0.0,0.0,0.0,0.0,0.0,0.0,0.0,0.0,0.0,0.0,0.0,0.0,0.0,0.0,0.0,0.0,0.0,0.0,0.0,0.0,0.0,0.0,0.0,0.0,0.0,0.0,0.0,0.0,0.0,0.0,0.0,0.0,0.0,0.0,0.0,0.0,0.0,0.0,0.0,0.0,0.0,0.0,0.0,0.0,0.0,0.0,0.0,0.0,0.0,0.0,0.0,0.0,0.0,0.0,0.0,0.0,0.0,0.0,0.0,0.0,0.0,0.0,0.0,0.0,0.0,0.0,0.0,0.0,0.0,0.0,0.0,0.0,0.0,0.0,0.0,0.0,0.0,6.7229,7.1287,7.6288,0.0,8.267,8.2207,8.3568,7.9362,7.4308,6.8969,0.0,0.0,0.0,0.0,0.0,0.0,0.0,0.0,0.0,0.0,0.0,0.0,0.0,0.0,0.0,0.0,0.0,0.0,0.0,0.0,0.0,0.0,0.0,0.0,0.0,0.0,0.0,0.0,0.0,0.0,0.0,0.0,0.0,0.0,0.0,0.0,0.0,0.0,0.0,0.0,0.0,0.0,0.0,0.0,0.0,0.0,0.0,0.0,0.0,0.0,0.0,0.0,0.0,0.0,0.0,0.0,0.0,0.0,0.0,0.0,0.0,0.0,0.0,0.0,0.0,0.0,0.0,0.0,0.0,0.0,0.0,0.0,0.0,0.0,0.0,0.0,0.0,0.0,0.0,0.0,0.0,0.0,0.0,0.0,0.0,0.0,0.0,0.0,0.0,0.0,0.0,0.0,0.0,0.0,0.0,0.0,0.0,0.0,0.0,0.0,0.0,0.0,6.6752,7.2597,7.9327,8.6915,8.624,8.6201,8.8652,8.1898,7.5015,0.0,0.0,0.0,0.0,0.0,0.0,0.0,0.0,0.0,0.0,0.0,0.0,0.0,0.0,0.0,0.0,0.0,0.0,0.0,0.0,0.0,0.0,0.0,0.0,0.0,0.0,0.0,0.0,0.0,0.0,0.0,0.0,0.0,0.0,0.0,0.0,0.0,0.0,0.0,0.0,0.0,0.0,0.0,0.0,0.0,0.0,0.0,0.0,0.0,0.0,0.0,0.0,0.0,0.0,0.0,0.0,0.0,0.0,0.0,0.0,0.0,0.0,0.0,0.0,0.0,0.0,0.0,0.0,0.0,0.0,0.0,0.0,0.0,0.0,0.0,0.0,0.0,0.0,0.0,0.0,0.0,0.0,0.0,0.0,0.0,0.0,0.0,0.0,0.0,0.0,0.0,0.0,0.0,0.0,0.0,0.0,0.0,0.0,0.0,0.0,0.0,0.0,0.0,0.0,7.8117,8.4403,8.9107,8.8102,8.7136,8.729,8.2458,7.635,6.922,0.0,0.0,0.0,0.0,0.0,0.0,0.0,0.0,0.0,0.0,0.0,0.0,0.0,0.0,0.0,0.0,0.0,0.0,0.0,0.0,0.0,0.0,0.0,0.0,0.0,0.0,0.0,0.0,0.0,0.0,0.0,0.0,0.0,0.0,0.0,0.0,0.0,0.0,0.0,0.0,0.0,0.0,0.0,0.0,0.0,0.0,0.0,0.0,0.0,0.0,0.0,0.0,0.0,0.0,0.0,0.0,0.0,0.0,0.0,0.0,0.0,0.0,0.0,0.0,0.0,0.0,0.0,0.0,0.0,0.0,0.0,0.0,0.0,0.0,0.0,0.0,0.0,0.0,0.0,0.0,0.0,0.0,0.0,0.0,0.0,0.0,0.0,0.0,0.0,0.0,0.0,0.0,0.0,0.0,0.0,0.0,0.0,0.0,0.0,0.0,0.0,0.0,7.2616,8.0293,8.7086,9.1909,9.0942,9.013,9.0633,8.6107,7.9995,7.2336,0.0,0.0,0.0,0.0,0.0,0.0,0.0,0.0,0.0,0.0,0.0,0.0,0.0,0.0,0.0,0.0,0.0,0.0,0.0,0.0,0.0,0.0,0.0,0.0,0.0,0.0,0.0,0.0,0.0,0.0,0.0,0.0,0.0,0.0,0.0,0.0,0.0,0.0,0.0,0.0,0.0,0.0,0.0,0.0,0.0,0.0,0.0,0.0,0.0,0.0,0.0,0.0,0.0,0.0,0.0,0.0,0.0,0.0,0.0,0.0,0.0,0.0,0.0,0.0,0.0,0.0,0.0,0.0,0.0,0.0,0.0,0.0,0.0,0.0,0.0,0.0,0.0,0.0,0.0,0.0,0.0,0.0,0.0,0.0,0.0,0.0,0.0,0.0,0.0,0.0,0.0,0.0,0.0,0.0,0.0,0.0,0.0,0.0,0.0,0.0,0.0,0.0,7.2422,8.0666,8.8544,9.4926,9.4269,9.4191,9.628,9.129,8.4753,7.7132,0.0,0.0,0.0,0.0,0.0,0.0,0.0,0.0,0.0,0.0,0.0,0.0,0.0,0.0,0.0,0.0,0.0,0.0,0.0,0.0,0.0,0.0,0.0,0.0,0.0,0.0,0.0,0.0,0.0,0.0,0.0,0.0,0.0,0.0,0.0,0.0,0.0,0.0,0.0,0.0,0.0,0.0,0.0,0.0,0.0,0.0,0.0,0.0,0.0,0.0,0.0,0.0,0.0,0.0,0.0,0.0,0.0,0.0,0.0,0.0,7.1445,0.0,0.0,0.0,0.0,0.0,0.0,0.0,0.0,0.0,0.0,0.0,0.0,0.0,0.0,0.0,0.0,0.0,0.0,0.0,0.0,0.0,0.0,0.0,0.0,0.0,0.0,0.0,0.0,0.0,0.0,0.0,0.0,0.0,0.0,0.0,0.0,0.0,0.0,0.0,0.0,0.0,7.6049,8.5797,9.3379,9.6203,9.6203,9.539,9.3921,9.0826,8.5913,7.8873,0.0,0.0,0.0,0.0,0.0,0.0,0.0,0.0,0.0,0.0,0.0,0.0,0.0,0.0,0.0,0.0,0.0,0.0,0.0,0.0,0.0,0.0,0.0,0.0,0.0,0.0,0.0,0.0,0.0,0.0,0.0,0.0,0.0,0.0,0.0,0.0,0.0,0.0,0.0,0.0,0.0,0.0,0.0,0.0,0.0,0.0,0.0,0.0,0.0,0.0,0.0,0.0,0.0,0.0,0.0,0.0,0.0,0.0,0.0,0.0,0.0,7.3086,0.0,0.0,0.0,0.0,0.0,0.0,0.0,0.0,0.0,0.0,0.0,0.0,0.0,0.0,0.0,0.0,0.0,0.0,0.0,0.0,0.0,0.0,0.0,0.0,0.0,0.0,0.0,0.0,0.0,0.0,0.0,0.0,0.0,0.0,0.0,0.0,0.0,0.0,0.0,0.0,7.6707,8.6919,9.4423,9.6009,9.6271,9.5768,9.4307,9.1484,8.7731,8.2935,7.663,0.0,0.0,0.0,0.0,0.0,0.0,0.0,0.0,0.0,0.0,0.0,0.0,0.0,0.0,0.0,0.0,0.0,0.0,0.0,0.0,0.0,0.0,0.0,0.0,0.0,0.0,0.0,0.0,0.0,0.0,0.0,0.0,0.0,0.0,0.0,0.0,0.0,0.0,0.0,0.0,0.0,0.0,0.0,0.0,0.0,0.0,0.0,0.0,0.0,0.0,0.0,0.0,0.0,0.0,0.0,8.5742,8.8633,8.9258,8.789,8.5586,8.1797,7.7031,0.0,0.0,0.0,0.0,0.0,0.0,0.0,0.0,0.0,0.0,0.0,0.0,0.0,0.0,0.0,0.0,0.0,0.0,0.0,0.0,0.0,0.0,0.0,0.0,0.0,7.6397,7.8477,0.0,0.0,0.0,0.0,0.0,0.0,0.0,0.0,0.0,0.0,0.0,0.0,7.7095,8.6933,9.4065,9.5221,9.5747,9.5806,9.5352,9.2567,8.9782,8.7228,8.1194,7.574,0.0,0.0,0.0,0.0,0.0,0.0,0.0,0.0,0.0,0.0,0.0,0.0,0.0,0.0,0.0,0.0,0.0,0.0,0.0,0.0,0.0,0.0,0.0,0.0,0.0,0.0,0.0,0.0,0.0,0.0,0.0,0.0,6.914,6.6516,0.0,0.0,0.0,0.0,0.0,0.0,0.0,0.0,0.0,0.0,0.0,0.0,0.0,0.0,8.1445,8.7539,9.0312,8.9844,9.6601,9.957,9.9062,9.9531,10.0,10.0508,9.9375,0.0,8.2539,8.2109,0.0,0.0,0.0,0.0,0.0,0.0,0.0,0.0,0.0,0.0,0.0,0.0,0.0,0.0,0.0,0.0,0.0,0.0,0.0,0.0,0.0,0.0,8.3448,8.4689,8.5484,8.5577,0.0,7.615,6.8857,6.7304,0.0,0.0,0.0,0.0,0.0,0.0,0.0,0.0,8.068,8.902,9.4602,9.4773,9.6034,9.6241,9.4762,9.3418,9.1561,8.9008,8.5217,8.0807,7.5779,7.2258,0.0,0.0,0.0,0.0,0.0,0.0,0.0,0.0,0.0,0.0,0.0,0.0,0.0,0.0,0.0,0.0,0.0,0.0,0.0,0.0,0.0,0.0,0.0,0.0,0.0,0.0,0.0,0.0,0.0,6.7305,7.164,6.6758,7.0039,6.9844,0.0,0.0,0.0,0.0,0.0,0.0,0.0,0.0,0.0,8.5312,8.5976,8.8203,9.2383,9.4922,9.6758,9.7851,10.0312,10.1797,10.2304,10.2304,10.2812,10.3515,10.1719,9.7851,9.2734,8.9336,8.4609,7.9297,0.0,0.0,0.0,0.0,0.0,7.25,7.6406,0.0,0.0,0.0,0.0,0.0,0.0,0.0,0.0,0.0,0.0,0.0,0.0,0.0,0.0,8.4466,8.5438,8.5539,8.4584,8.0536,7.6123,0.0,7.1822,6.9847,6.4515,0.0,0.0,0.0,0.0,0.0,8.2363,8.9476,9.4134,9.3912,9.5399,9.6043,9.511,9.3804,9.2296,9.071,8.7847,8.4598,8.0885,7.6514,7.1678,0.0,0.0,0.0,0.0,0.0,0.0,0.0,0.0,0.0,0.0,0.0,0.0,0.0,0.0,0.0,0.0,0.0,0.0,0.0,0.0,0.0,0.0,0.0,0.0,0.0,0.0,0.0,0.0,7.0703,0.0,6.8594,7.2656,7.3242,0.0,0.0,0.0,0.0,0.0,0.0,8.2265,8.3789,8.7187,9.2773,9.3594,9.6094,10.0586,10.0,10.0508,10.2187,10.1094,10.1289,10.2617,10.2617,10.289,10.3398,10.1015,9.9961,9.9609,9.4648,8.9609,8.4726,8.2617,8.0703,0.0,8.0312,7.9648,7.8984,8.4336,8.5508,8.4531,8.4101,0.0,8.039,7.5469,0.0,0.0,0.0,0.0,7.0703,7.6367,0.0,8.0296,8.2844,8.4132,8.4531,8.3631,8.3064,8.1662,0.0,7.7214,7.5176,6.8916,0.0,0.0,0.0,0.0,8.2344,8.4219,8.9804,9.3423,9.3094,9.4262,9.5239,9.5613,9.3891,9.2499,9.187,8.9588,8.7035,8.4289,8.0227,7.6127,0.0,0.0,0.0,0.0,0.0,0.0,0.0,0.0,0.0,0.0,0.0,0.0,0.0,0.0,0.0,0.0,0.0,0.0,0.0,0.0,0.0,0.0,0.0,0.0,0.0,0.0,0.0,0.0,0.0,0.0,7.4765,7.9453,0.0,0.0,0.0,0.0,7.7656,8.4297,8.8515,8.9414,9.4922,9.8945,10.1015,10.1094,10.1211,10.1484,10.1484,10.1094,10.039,10.1211,10.1601,10.1719,10.1719,10.1719,10.1601,9.9844,9.9062,9.8906,9.7031,9.4609,9.1992,9.1015,8.9609,8.7695,8.4531,8.3867,8.4609,8.5781,8.6679,8.7812,9.0976,8.7578,8.1875,7.9922,7.5781,0.0,0.0,7.543,7.7109,7.9062,8.1445,8.3397,8.3554,8.4257,8.4642,8.3801,8.2187,8.1103,0.0,8.1967,8.1053,7.8241,0.0,0.0,7.8984,8.1562,8.4414,8.6953,9.0429,9.2656,9.2616,9.261,9.3523,9.5971,9.3707,9.2161,9.219,9.0362,8.7809,8.4443,8.3128,7.9724,7.3883,7.0982,0.0,0.0,0.0,0.0,0.0,0.0,0.0,0.0,0.0,0.0,0.0,0.0,0.0,0.0,0.0,0.0,0.0,0.0,0.0,0.0,0.0,0.0,0.0,0.0,0.0,0.0,0.0,0.0,7.6875,8.5039,0.0,0.0,8.2226,8.4609,8.5039,9.1445,9.5703,9.6562,9.9219,10.1211,10.2383,10.1914,10.1289,10.0781,9.9648,9.8945,9.8633,9.9492,10.0195,10.0781,10.1289,10.1601,10.1484,9.914,9.7851,9.7304,9.6133,9.5742,9.5781,9.4961,9.4258,9.3554,9.2344,9.1406,9.0742,9.1054,9.0976,9.0898,9.1562,8.9336,8.5898,8.3086,8.0547,7.8437,7.7383,7.7578,7.8437,8.0117,8.164,8.2773,8.2773,8.3008,8.3122,8.2842,8.224,8.1859,8.2226,8.1789,8.0541,7.8083,8.0898,8.2773,8.082,8.414,8.7226,8.8164,9.0312,9.1289,9.0078,9.1871,9.3302,9.3532,9.221,9.1102,9.0557,8.8322,8.5988,8.3683,8.2638,8.0072,7.5693,7.359,6.8352,0.0,0.0,0.0,0.0,0.0,0.0,0.0,0.0,0.0,0.0,0.0,0.0,0.0,0.0,0.0,0.0,0.0,0.0,0.0,0.0,0.0,0.0,0.0,0.0,0.0,0.0,8.4492,8.1094,8.8476,9.1406,8.5117,8.914,9.2031,9.1758,9.707,10.0195,9.9883,10.1211,10.2187,10.25,10.2187,10.1289,9.9883,9.8711,9.7695,9.6875,9.8008,9.8711,9.9062,10.0195,10.039,9.9765,9.7734,9.6406,9.5547,9.4687,9.5156,9.6328,9.5508,9.5195,9.5156,9.4844,9.4219,9.3437,9.3125,9.2656,9.1953,9.0781,8.9258,8.7383,8.4804,8.3008,8.1523,7.9805,7.914,7.9219,8.0625,8.1211,8.1484,8.1797,8.1875,8.1875,8.1875,8.2109,8.2304,8.2304,8.1992,8.1243,7.9645,8.3164,8.5117,8.1914,8.5351,8.7851,8.6679,8.832,8.9219,8.8242,9.0195,9.1633,9.1826,9.0013,8.8989,8.9262,8.6258,8.4,8.2893,8.1281,7.8951,7.5832,7.2816,6.8545,6.2897,0.0,0.0,0.0,0.0,0.0,0.0,0.0,0.0,0.0,0.0,0.0,0.0,0.0,0.0,0.0,0.0,0.0,0.0,0.0,0.0,0.0,0.0,0.0,7.957,8.4297,8.7617,8.7695,9.0039,9.2304,9.3945,9.414,9.5195,9.7617,10.0898,10.1797,9.9219,10.1484,10.25,10.1601,10.2383,10.1601,9.8984,9.8945,9.7695,9.5273,9.6914,9.7304,9.6601,9.8203,9.8047,9.6445,9.5547,9.4687,9.3828,9.2969,9.3086,9.3789,9.2929,9.2617,9.2578,9.1679,9.1875,9.2461,9.1562,9.125,9.0976,8.9219,8.7539,8.5976,8.5078,8.3047,8.0976,8.0937,8.0312,7.9883,8.0742,8.0312,7.9922,8.0781,8.0976,8.0937,8.0976,8.164,8.2226,8.2304,8.3008,8.3594,8.3594,8.5039,8.5312,8.2851,8.5351,0.0,8.289,8.4687,8.6523,8.7304,8.7422,8.8476,9.0937,8.7265,8.5937,8.8476,8.4492,8.2086,8.2129,7.9477,7.6803,7.4331,6.9164,6.7307,6.9009,0.0,0.0,0.0,0.0,0.0,0.0,0.0,0.0,0.0,0.0,0.0,0.0,0.0,0.0,0.0,0.0,0.0,0.0,0.0,0.0,0.0,0.0,8.3203,8.1797,8.6054,9.0039,9.1914,9.6601,9.9414,9.8633,9.9687,10.0195,9.9648,10.1094,10.1601,10.0898,10.2187,10.25,10.1601,10.1211,10.0117,9.8086,9.7461,9.6836,9.6172,9.7187,9.7578,9.7383,9.7851,9.75,9.6406,9.4922,9.4101,9.3828,9.2969,9.2734,9.2929,9.2695,9.3359,9.4297,9.2812,9.2383,9.2383,9.0898,9.0351,9.0078,8.8398,8.664,8.4961,8.3476,8.207,8.0742,7.9531,7.9414,7.9765,8.0,7.9883,7.9922,8.0781,8.0078,7.9531,8.0742,8.0703,8.0781,8.2031,8.3008,8.3594,8.3594,8.4531,8.5429,8.5976,0.0,0.0,8.6172,8.6719,8.6523,8.4844,8.5781,8.6836,8.7539,8.5351,8.4804,0.0,8.3359,8.16,8.2207,8.0806,7.9641,7.8839,7.4895,7.3087,0.0,0.0,0.0,0.0,0.0,0.0,0.0,0.0,0.0,0.0,0.0,0.0,0.0,0.0,0.0,0.0,0.0,0.0,0.0,0.0,0.0,0.0,8.6562,9.0117,8.8906,9.1054,9.3554,9.5781,9.914,10.1015,10.039,10.1484,10.1797,10.039,10.1094,10.1289,10.0508,10.1289,10.1406,10.0508,10.039,9.9453,9.7734,9.7617,9.7187,9.6523,9.6953,9.7187,9.7187,9.6836,9.6406,0.0,9.4492,9.3906,9.3828,9.2969,9.2617,0.0,0.0,0.0,0.0,0.0,9.1836,9.1328,8.9922,8.9453,8.9258,8.7929,8.6054,8.4179,8.3164,8.1719,8.0195,7.8867,7.8828,7.9258,7.9609,7.9453,7.9492,8.0703,8.0273,7.9805,8.0781,8.0898,8.1289,8.3047,0.0,0.0,8.5117,8.5351,8.5429,8.5312,8.6562,8.6953,0.0,8.6289,8.6367,8.4844,8.6211,8.7265,8.7265,8.5664,0.0,0.0,0.0,8.1445,8.1172,0.0,0.0,0.0,0.0,0.0,0.0,0.0,0.0,0.0,7.9608,7.9221,0.0,0.0,0.0,0.0,0.0,0.0,0.0,0.0,0.0,0.0,0.0,0.0,0.0,0.0,0.0,0.0,9.2929,9.7187,9.789,9.7304,9.7383,9.8945,9.914,9.9492,10.039,10.1211,10.1406,10.0703,10.1289,10.1015,9.9375,0.0,0.0,0.0,0.0,9.9375,9.7734,9.8554,9.8281,9.6914,9.6836,9.6797,9.6758,9.5664,9.5156,9.5,9.414,9.375,9.3672,9.2929,9.2539,9.2383,9.1601,9.164,9.207,9.1289,9.0586,0.0,0.0,0.0,0.0,8.7656,8.5664,8.3594,8.3476,8.1719,7.9531,7.8828,7.8555,7.8711,7.9609,7.918,7.8906,8.0586,8.1015,8.1015,8.1133,8.1836,8.2969,8.4726,8.5117,8.5664,8.7226,8.6914,8.5703,8.3359,8.5742,0.0,8.3554,8.5195,8.6562,8.6367,0.0,0.0,8.8554,8.7187,8.6719,8.7578,8.4648,8.2187,8.0547,7.9844,7.9092,7.8269,7.8425,8.1039,8.6239,8.7398,8.9809,9.3114,8.2418,8.1117,0.0,0.0,0.0,0.0,0.0,0.0,0.0,0.0,0.0,0.0,0.0,0.0,0.0,0.0,0.0,8.9258,9.5156,9.9609,9.9765,9.9062,9.8906,9.9922,10.0,10.039,10.1289,10.2109,10.2617,10.2383,10.2617,10.2187,10.1211,10.1289,0.0,9.9062,9.914,9.875,9.7695,9.8554,9.9179,9.957,0.0,0.0,9.8437,9.6211,9.4804,9.4101,9.3242,9.2851,9.2851,9.2656,9.2187,9.1523,9.1367,9.0547,8.9414,8.9258,8.9531,8.9765,8.8242,8.8164,8.8437,8.6953,8.5156,8.3476,8.2773,8.1211,0.0,7.9492,7.8984,7.8867,8.0351,7.9648,7.8906,8.0586,8.1015,8.1172,8.1914,8.2734,8.3867,8.5625,8.6523,8.7109,8.7422,8.789,8.8047,8.7539,8.8633,8.9258,8.8594,8.8945,8.875,8.7383,8.7539,8.7734,8.7734,8.7422,8.7617,8.8437,8.7226,8.6328,8.5976,8.6445,8.6601,8.6403,8.7692,8.8583,8.9037,9.1859,9.3289,9.3389,9.2402,9.2777,0.0,0.0,0.0,0.0,0.0,0.0,0.0,0.0,0.0,0.0,0.0,8.1328,0.0,0.0,9.3242,9.7109,10.0312,10.2109,10.1719,10.1211,10.0781,10.039,10.0312,10.0586,10.1484,10.2383,10.2695,10.2304,10.1797,10.1406,10.1015,10.0117,9.9453,9.9023,9.8984,9.8594,9.7695,9.8554,9.9219,9.9648,9.8359,9.7969,9.8281,9.6172,9.4961,9.4492,9.3633,9.3242,9.3203,9.2773,9.2109,9.125,9.082,8.9844,8.8711,8.8711,8.8711,8.8633,8.7773,8.7461,8.7383,8.6992,8.539,8.3594,8.3594,8.2383,8.0898,8.0469,8.0078,7.9922,8.0781,8.0703,8.0625,8.1445,8.2304,8.2969,8.2969,8.3633,8.4883,8.7031,8.7812,8.8242,8.8672,8.9804,9.0195,8.8906,8.9804,9.0508,9.0078,9.039,9.0156,8.8906,8.914,8.957,9.0039,9.0039,9.0234,9.0625,8.9453,8.875,8.875,8.914,8.957,9.0,9.0781,9.1406,9.1875,9.3925,9.4938,9.4977,9.6235,9.6521,0.0,0.0,0.0,0.0,0.0,0.0,0.0,0.0,8.1719,8.1953,8.4804,8.9062,9.4844,9.6328,9.8672,10.5,10.539,10.4687,10.3984,10.3515,10.2617,10.1015,10.0781,10.1015,10.1484,10.2383,10.2617,10.1914,10.1211,10.0703,10.0586,9.9062,9.8437,9.8984,9.8984,9.8594,9.7695,9.8554,9.8984,9.8984,9.7617,9.7226,9.7656,9.6289,9.5429,9.4883,9.4023,9.3633,9.3594,9.289,9.2187,9.1445,9.039,8.957,8.8906,8.8594,8.8047,8.75,8.75,8.6914,8.6328,8.7031,8.5586,8.3711,8.4414,8.3554,8.2148,8.1445,8.1133,8.1054,8.1211,8.164,8.2109,8.2265,8.3515,8.4492,8.3984,8.4531,8.5898,8.8476,8.8945,8.9179,8.9883,9.1445,9.1758,8.9336,9.0429,9.1289,9.0586,9.1133,9.1367,9.082,9.1406,9.2226,9.3281,9.3203,9.3125,9.3125,9.1484,9.0586,9.0742,9.0429,9.082,9.2031,9.1875,9.2578,9.414,9.5013,9.5795,9.6508,9.7316,9.7199,6.3203,6.3515,0.0,7.0273,7.4258,7.9023,0.0,0.0,9.3554,9.4336,10.0195,10.4687,10.3281,10.4883,10.6719,10.7617,10.7617,10.75,10.7383,10.5508,10.3711,10.2695,10.2617,10.2304,10.1719,10.2383,10.289,10.2812,10.2695,10.2304,10.1484,10.0508,9.9687,9.9023,9.8984,9.8594,9.7695,9.8554,9.8984,9.8984,9.8828,9.8359,9.7695,9.75,9.6172,9.3984,9.3125,9.2734,9.2734,9.2656,9.2539,9.2304,9.0625,8.9922,8.9687,8.8164,8.7578,8.75,8.75,8.6914,8.6211,8.6328,8.5117,8.3633,8.3711,8.3086,8.2265,8.2187,8.1601,8.1172,8.1953,8.164,8.1328,8.2109,8.3047,8.3945,8.4609,8.5429,8.6797,8.9375,8.9844,8.9883,8.9961,9.1445,9.1992,9.0117,9.1328,9.2422,9.2304,9.2383,9.2695,9.3398,9.3554,9.4297,9.5937,9.5351,9.4922,9.4922,9.3281,9.2656,9.3437,9.1992,9.2304,9.4726,9.3984,9.4101,9.5078,9.5936,9.6404,9.6521,9.734,9.7615,7.0156,0.0,0.0,0.0,8.6094,9.0937,9.5859,9.9922,10.2812,10.3086,10.6211,10.8906,10.9414,11.0312,11.1289,0.0,11.1718,11.0781,11.0312,10.8008,10.5898,10.4609,10.3515,10.2617,10.1719,10.2383,10.2695,10.2187,10.2109,10.1992,10.1601,10.0781,10.0117,9.9765,9.9765,9.9336,9.8476,9.832,9.875,9.9726,9.8711,9.8047,9.7695,9.7695,9.6328,9.3867,9.2969,9.2617,9.2617,9.2617,9.2617,9.2461,9.125,9.0469,8.9726,8.7539,8.7344,8.8047,8.707,8.6836,8.6953,8.6953,8.5781,8.4453,8.4961,8.414,8.3047,8.3047,8.2422,8.1836,8.2226,8.2422,8.2617,8.2969,8.4492,8.5976,8.6328,8.7461,8.8867,9.0469,9.0742,9.0742,9.0742,9.2187,9.2773,9.1015,9.1797,9.2617,9.2617,9.3047,9.3672,9.457,9.5117,9.5508,9.5703,9.539,9.5195,9.5195,9.4023,9.375,9.4609,9.3945,9.4062,9.5195,9.4844,9.5312,9.664,9.6562,9.6992,9.7969,9.7773,9.7695,7.4375,0.0,0.0,8.9531,9.5859,10.1015,10.3984,10.6992,10.9101,10.9414,10.9883,11.1015,11.3203,11.3711,0.0,11.6484,11.539,11.4101,11.3711,11.0586,10.7695,10.6015,10.4101,10.2383,10.1015,10.1484,10.1914,10.1992,10.1719,10.1719,10.1914,10.1094,10.0703,10.0703,10.039,9.9883,9.9023,9.8359,9.8554,9.957,9.8554,9.7812,9.7344,9.7109,9.625,9.4883,9.3554,9.2969,9.2929,9.2695,9.2617,9.25,9.164,9.0898,9.0078,8.7734,8.7539,8.8164,8.6719,8.6601,8.7148,8.7148,8.6133,8.4961,8.5351,8.4609,8.3554,8.332,8.2773,8.2344,8.2617,8.3125,8.3672,8.3906,8.5586,8.7226,8.7461,8.8633,9.0039,9.1406,9.1445,9.1367,9.1601,9.2695,9.3125,9.1836,9.2617,9.332,9.332,9.4258,9.5117,9.5508,9.6133,9.6133,9.5273,9.5429,9.5469,9.5234,9.4844,9.5,9.5859,9.5664,9.5898,9.6601,9.6367,9.6953,9.8437,9.7578,9.7812,9.8984,9.8359,9.8047,0.0,0.0,9.1523,9.4336,10.0781,10.6914,10.8711,11.0508,11.1992,11.289,11.3086,11.3398,11.4297,11.5117,11.6484,11.9101,11.8008,11.7187,11.8008,11.3008,10.8593,10.6914,10.4414,10.1914,0.0,9.9101,10.0195,10.2695,10.2109,10.1992,10.2812,10.1992,10.1601,10.1601,10.0703,9.9883,9.9023,9.8984,9.8554,9.7773,9.8594,9.8125,9.6523,9.5664,9.6133,9.7461,9.4922,9.3867,9.3789,9.2969,9.2617,9.25,9.164,9.1289,9.1054,8.9297,8.8164,8.7422,8.6523,8.6211,8.625,8.625,8.5625,8.4765,8.3945,8.3633,8.3437,8.2578,8.2304,8.25,8.3359,8.3594,8.3828,8.4648,8.5586,8.6484,8.7304,8.8164,8.9492,9.207,9.1875,9.1562,9.2422,9.2617,9.2617,9.2578,9.4023,9.5117,9.5117,9.6562,9.7304,9.6523,9.6484,9.6133,9.5273,9.5976,9.6094,9.5234,9.5976,9.6797,9.7578,9.6875,9.7617,10.0117,9.9336,9.9336,10.0195,9.9336,9.8945,9.8984,9.8984,9.8945,0.0,0.0,9.5937,10.0781,10.5703,10.9609,11.0781,11.2383,11.3515,11.3281,11.0508,10.8203,10.8515,11.0117,11.1718,11.2617,11.6093,11.8203,11.6797,11.4414,11.1484,10.8008,10.5312,0.0,0.0,0.0,0.0,10.1211,10.1406,10.1992,10.289,10.2617,10.1914,10.0781,10.0508,9.9883,9.9023,9.789,9.7734,9.8554,9.8281,9.8125,9.8125,9.6719,9.6367,9.6797,9.4765,9.3906,9.3828,9.2969,9.2617,9.2578,9.2265,9.1797,9.1172,9.0,8.9375,8.8945,8.7539,8.7422,8.7773,8.7226,8.6875,8.6562,8.6289,8.5781,8.5273,8.4961,8.4453,8.4101,8.4375,8.4453,8.4687,8.5547,8.6836,8.8086,8.8984,9.0742,9.2422,9.3281,9.3672,9.3984,9.4258,9.4804,9.5351,9.5898,9.6015,9.6445,9.7578,9.7695,9.7617,9.7344,9.6836,9.6367,9.6094,9.6328,9.6836,9.7656,9.8008,9.8554,9.9375,9.9179,9.9414,10.0312,10.0,10.0312,10.1211,10.0312,10.0195,10.0703,10.0117,9.9531,0.0,9.7695,10.0898,10.6015,10.9414,11.1797,11.2617,11.3515,11.3789,11.289,10.789,10.3594,10.3594,10.3711,10.5,10.8711,11.3281,11.6718,11.7383,11.6289,11.3789,10.9414,10.6719,0.0,0.0,0.0,0.0,10.0781,10.1289,10.1992,10.289,10.289,10.2383,10.1289,10.0898,10.0508,9.9922,9.8867,9.8711,9.9453,9.8281,9.8164,9.8945,9.7578,9.7109,9.7265,9.5234,9.4375,9.4258,9.3086,9.2617,9.2617,9.2617,9.2265,9.1719,9.1133,9.0742,9.0234,8.8515,8.8281,8.8594,8.8086,8.7734,8.7422,8.7148,8.664,8.6211,8.6211,8.5586,8.5039,8.5664,8.5586,8.5664,8.6836,8.8164,8.9414,9.0273,9.2031,9.3633,9.4258,9.457,9.5039,9.5937,9.6562,9.7304,9.8476,9.8203,9.8242,9.9336,9.8984,9.8515,9.8203,9.7422,9.6797,9.6523,9.7031,9.7851,9.8945,9.9297,9.9844,10.0703,10.0781,10.0898,10.1211,10.1484,10.1992,10.25,10.1719,10.1484,10.1992,10.1211,10.0508,9.7969,10.25,10.6484,10.9804,11.1797,11.3281,11.4218,11.3711,11.2695,11.1797,10.5312,9.9804,0.0,0.0,9.7265,10.7304,11.0117,11.3281,11.9687,11.8593,11.5508,0.0,0.0,0.0,0.0,0.0,0.0,10.1719,0.0,10.1992,10.289,10.289,10.289,10.2812,10.1992,10.1601,10.1484,10.1406,10.1015,10.0117,9.8437,9.8086,9.8906,9.8086,9.8125,9.8711,9.6289,9.5156,9.5,9.3281,9.2617,9.2617,9.2617,9.2617,9.2617,9.2617,9.207,9.1133,8.9453,8.8828,8.8711,8.8711,8.8164,8.7344,8.6523,8.6289,8.6289,8.6328,8.5742,8.5508,8.7187,8.6992,8.6797,8.8398,8.9414,9.0273,9.1054,9.2031,9.3203,9.4883,9.4687,9.4961,9.7304,9.7773,9.8398,10.0,10.0312,10.039,10.039,10.0312,9.9961,9.9023,9.8203,9.7422,9.6679,9.8125,9.9101,9.9179,9.9961,10.0781,10.1601,10.1719,10.2109,10.289,10.3789,10.4219,10.4219,10.3398,10.3008,10.289,10.2109,10.1601,10.3008,10.6484,10.8711,11.0195,11.0898,11.1484,11.2383,11.1406,10.9883,10.8281,9.9804,9.3008,0.0,0.0,0.0,10.2617,11.0703,0.0,11.6992,11.7617,0.0,0.0,0.0,10.75,10.4492,10.2812,0.0,0.0,10.2187,10.2695,10.289,10.289,10.2617,10.1992,10.1719,10.1289,10.0586,9.9336,9.8594,9.8359,9.7304,9.7226,9.8008,9.7812,9.75,9.707,9.5742,9.4844,9.414,9.3047,9.2617,9.2617,9.2617,9.2617,9.2617,9.2617,9.2461,9.2187,9.1758,9.0312,8.8711,8.8711,8.8164,8.7461,8.7226,8.7187,8.7304,8.789,8.789,8.7969,8.9062,8.9219,8.914,8.957,9.0312,9.0859,9.0429,9.2539,9.4687,9.5117,9.707,9.8476,9.7812,9.8789,9.957,9.9375,10.039,10.1289,10.1289,10.0703,9.9726,9.8203,9.7812,9.789,9.832,9.9336,10.0508,10.1797,10.2109,10.2304,10.2617,10.2617,10.2695,10.289,10.3789,10.4219,10.4219,10.3984,10.3906,10.3789,10.3008,10.2187,10.8086,10.9687,11.0117,11.1015,11.0898,10.9883,10.7383,10.5508,10.289,9.8125,9.0039,0.0,0.0,0.0,0.0,0.0,0.0,0.0,11.6484,11.8008,11.7617,0.0,11.1718,0.0,10.7383,10.5781,10.4687,0.0,0.0,10.289,10.289,10.289,10.2695,10.2187,10.2187,10.1914,10.1406,10.0117,9.9414,9.9414,9.8164,9.7812,9.8242,9.7851,9.7461,9.6992,0.0,9.5273,9.4414,9.3515,9.2969,9.2617,9.2617,9.2617,9.2617,9.2617,9.2617,9.2617,9.2617,9.1406,8.9844,8.9844,8.9023,8.8047,8.8047,8.7773,8.7734,8.8945,8.8984,8.8984,9.0234,9.0586,9.0586,9.0586,9.125,9.1758,9.125,9.2695,9.4297,9.5039,9.7969,10.0,9.9023,9.9961,10.0781,10.0703,10.1211,10.1601,10.1601,10.0781,10.0117,9.9492,9.9062,9.9179,10.0117,10.0898,10.1914,10.2812,10.289,10.289,10.289,10.3281,10.3515,10.3515,10.4687,10.5312,10.5312,10.4883,10.5,10.5312,10.3594,10.2812,11.2187,11.1797,11.0781,11.1718,11.0898,10.8203,10.1484,9.8242,9.4336,8.6094,0.0,0.0,7.9453,0.0,8.2304,9.5859,0.0,10.8593,11.6992,11.8711,11.8398,11.6484,11.3789,11.1484,11.0,10.9414,10.8515,10.6797,10.4687,10.3398,10.3281,10.3086,10.3008,10.289,10.289,10.289,10.289,10.1914,10.1484,10.1601,9.9726,9.8906,9.8984,9.8086,9.7656,9.75,0.0,0.0,9.5156,9.4375,9.3554,9.2773,9.2773,9.2695,9.2617,9.2734,9.2695,9.2617,9.2734,9.2187,9.1445,9.1328,9.0195,8.8867,8.8867,8.8398,8.8164,8.9726,8.9648,8.9414,9.1054,9.1484,9.1484,9.1484,9.2148,9.2734,9.2617,9.2969,9.3789,9.5547,9.8476,10.0586,10.0312,10.1015,10.1797,10.25,10.1992,10.1601,10.1601,10.0898,10.0703,10.1406,10.0898,10.0781,10.1484,10.2383,10.289,10.289,10.3008,10.3008,10.289,10.3789,10.4414,10.4414,10.6015,10.6914,10.6992,10.6093,10.6015,10.6601,10.4101,10.3281,11.1797,11.1406,11.0781,11.1718,10.9101,10.4883,9.9414,9.4609,0.0,0.0,0.0,7.457,8.0703,8.1601,0.0,9.7851,0.0,0.0,0.0,0.0,11.7109,0.0,0.0,0.0,0.0,0.0,0.0,0.0,0.0,0.0,10.5117,10.4414,10.3594,10.289,10.289,10.289,10.289,10.1289,10.0898,10.1601,9.9101,9.8281,9.8984,9.8086,9.7344,9.6719,0.0,0.0,9.5195,9.5039,9.4453,9.3672,9.3672,9.3242,9.2695,9.3398,9.3203,9.2695,9.3437,9.3086,9.2265,9.1523,9.0625,8.9765,8.9765,8.9687,8.9765,9.0781,9.0976,9.1094,9.2109,9.2383,9.2383,9.2383,9.3047,9.3476,9.2773,9.4804,9.7344,9.9062,10.1094,10.1992,10.0508,10.1015,10.1406,10.0781,10.1211,10.1601,10.1601,10.1484,10.1211,10.0586,10.1015,10.1406,10.1601,10.2383,10.289,10.289,10.3594,10.3711,10.289,10.4414,10.5312,10.5312,10.6914,10.8086,10.8789,10.7304,10.6601,10.6601,10.4101,10.3008,11.3008,11.1992,11.0781,11.1718,10.8008,10.1797,9.3047,0.0,0.0,0.0,0.0,6.8867,7.4023,0.0,0.0,0.0,0.0,0.0,0.0,0.0,0.0,0.0,0.0,0.0,0.0,0.0,0.0,0.0,0.0,0.0,10.5586,10.4687,10.3789,10.289,10.289,10.289,10.289,10.2109,10.1914,10.2304,10.0508,9.9961,10.0312,9.8984,9.8164,9.7773,0.0,0.0,9.5898,9.5898,9.5351,9.457,9.457,9.4336,9.3984,9.4414,9.4023,9.3359,9.375,9.3633,9.3203,9.2773,9.1758,9.0742,9.1211,9.0703,9.0195,9.1054,9.1289,9.1484,9.2383,9.3281,9.3828,9.3398,9.3945,9.4609,9.4609,9.625,9.8086,9.9375,10.1015,10.1992,10.1094,10.2109,10.2695,10.1797,10.2812,10.3281,10.2383,10.2695,10.2617,10.1719,10.1601,10.1797,10.2187,10.3086,10.3594,10.3594,10.4414,10.4687,10.4297,10.5898,10.6797,10.6797,10.8008,10.8906,10.9297,10.7617,10.6719,10.6601,10.4609,10.3594,11.3711,11.289,11.1484,11.1797,10.7383,9.9726,8.7656,8.1914,0.0,0.0,0.0,6.3789,6.7265,0.0,0.0,0.0,0.0,0.0,0.0,0.0,0.0,0.0,0.0,0.0,0.0,0.0,0.0,0.0,0.0,0.0,0.0,10.539,10.4492,10.3203,10.3203,10.3086,10.289,10.2695,10.2695,10.289,10.1992,10.1719,10.1797,10.0508,9.9844,9.9804,0.0,0.0,0.0,9.7383,9.6679,9.5703,9.5547,9.5351,9.5234,9.539,9.4922,9.4219,9.4375,9.4336,9.4219,9.4414,9.3398,9.2226,9.2734,9.2031,9.1211,9.1719,9.1992,9.2304,9.2969,9.4297,9.5351,9.4844,9.5234,9.6015,9.7109,9.7812,9.8554,9.9648,10.0898,10.1914,10.1914,10.3008,10.3789,10.3281,10.4297,10.4804,10.3594,10.4101,10.4101,10.3281,10.2383,10.2187,10.2812,10.3711,10.4219,10.4219,10.5195,10.5703,10.5508,10.7109,10.8008,10.8008,10.8906,10.9414,10.9609,10.7812,10.6992,10.6914,10.5312,10.4414,11.1797,11.3711,11.3789,11.2304,10.7383,9.9726,8.7656,0.0,0.0,0.0,6.1758,6.289,6.6367,6.8555,0.0,0.0,0.0,0.0,0.0,0.0,0.0,0.0,0.0,0.0,0.0,0.0,0.0,0.0,0.0,0.0,0.0,10.7695,10.6601,10.4219,10.4101,10.3711,10.289,10.2109,10.2109,10.289,10.1992,10.1992,10.2812,10.2617,10.25,10.25,0.0,0.0,0.0,10.0312,9.8984,9.7383,9.6679,9.5898,9.5312,9.6094,9.582,9.5195,9.5976,9.5742,9.5195,9.6015,9.5625,9.4726,9.3984,9.4219,9.457,9.3867,9.4219,9.4844,9.4922,9.5664,9.6523,9.7187,9.7422,9.7929,9.9609,10.0,10.0586,10.2187,10.2695,10.2812,10.2812,10.289,10.3281,10.3984,10.4219,10.4492,10.5195,10.5312,10.5,10.4219,10.3281,10.2812,10.289,10.3711,10.4219,10.4219,10.5703,10.6289,10.5508,10.7109,10.8008,10.8008,10.8906,10.9687,11.0508,10.8711,10.789,10.7812,10.6211,10.5,11.1093,11.2304,11.1601,11.25,10.6992,9.8437,8.7422,0.0,0.0,6.3828,6.1719,6.2265,6.4219,6.5117,6.7109,7.1758,7.3828,7.9531,0.0,0.0,0.0,0.0,0.0,0.0,0.0,0.0,0.0,0.0,0.0,0.0,0.0,10.8281,10.7109,10.5,10.5,10.4804,10.4492,10.3086,10.3086,10.4492,10.3594,10.3594,10.4414,10.3398,10.289,10.289,0.0,0.0,0.0,10.1015,10.039,9.9219,9.8906,9.8594,9.832,9.8672,9.8242,9.7461,9.7265,9.6992,9.6679,9.6523,9.6601,9.6562,9.5703,9.5351,9.5117,9.4765,9.4922,9.5312,9.5859,9.6992,9.8203,9.9062,9.9258,9.9609,10.0781,10.1094,10.1406,10.2695,10.289,10.289,10.289,10.3281,10.3789,10.4101,10.5117,10.5508,10.4804,10.5195,10.5195,10.4297,10.4414,10.4297,10.3711,10.4883,10.5703,10.5703,10.7304,10.789,10.6992,10.8711,10.9609,10.9609,10.9414,11.0,11.1406,10.9101,10.8281,10.8711,10.6992,10.6015,10.8906,11.0508,10.9687,11.1289,10.5195,9.6289,0.0,0.0,7.2851,6.4258,6.2265,6.2344,6.3203,6.3398,6.414,6.6523,6.8906,7.4297,8.5273,0.0,0.0,0.0,0.0,0.0,0.0,0.0,0.0,0.0,0.0,0.0,0.0,10.8906,10.7617,10.5898,10.5898,10.5703,10.5508,10.4297,10.4297,10.5508,10.5117,10.539,10.6211,10.5195,10.4804,0.0,0.0,0.0,0.0,10.2304,10.1914,10.1015,10.0508,10.0312,10.0312,10.0312,9.9922,9.9297,9.8672,9.8476,9.832,9.75,9.7617,9.7929,9.7109,9.6445,9.5898,9.5664,9.5937,9.6562,9.7734,9.8672,9.9609,10.0508,10.0508,10.0508,10.1406,10.1797,10.2187,10.3086,10.3281,10.3398,10.3594,10.3984,10.4414,10.4883,10.5898,10.6406,10.539,10.5898,10.5898,10.5,10.5703,10.5781,10.4687,10.5898,10.6719,10.6719,10.8086,10.8593,10.8008,10.9218,10.9804,10.9804,10.9218,10.9492,11.0703,10.9218,10.8593,10.8906,10.789,10.7187,10.4297,10.8711,10.9101,10.8281,10.1601,9.3203,0.0,7.6953,6.9531,6.5156,6.3594,6.3242,6.414,6.4297,6.4844,6.6601,7.1914,7.7344,8.1758,0.0,0.0,0.0,0.0,0.0,0.0,0.0,0.0,0.0,0.0,0.0,0.0,0.0,10.8515,10.6719,10.6719,10.6289,10.5508,10.5508,10.5508,10.5508,10.6289,10.7109,10.8008,10.8789,0.0,0.0,0.0,0.0,0.0,10.4883,10.3711,10.2695,10.1015,10.0312,10.0312,10.0312,10.0312,10.0312,10.0312,10.0312,10.0117,9.9258,9.8984,9.8828,9.7969,9.7695,9.75,9.6719,9.7695,9.9375,10.1094,10.0898,10.0508,10.1406,10.0898,10.0508,10.1406,10.2304,10.3086,10.3984,10.4219,10.4492,10.5312,10.4804,10.4804,10.6406,10.6719,10.6992,10.789,10.8008,10.7617,10.6797,10.75,10.7304,10.5586,10.6211,10.6719,10.6719,10.75,10.8008,10.8008,10.8008,10.8008,10.8008,10.8008,10.8008,10.8008,10.8906,10.8789,10.8008,10.8906,10.8281,8.9765,9.2851,9.3437,9.3164,8.9726,8.4804,7.8828,7.4414,7.0195,6.5312,6.4062,6.414,6.5039,6.5195,6.7461,7.4492,7.6797,8.0,0.0,0.0,0.0,0.0,0.0,0.0,0.0,0.0,0.0,0.0,0.0,0.0,0.0,0.0,10.8789,10.7617,10.7617,10.75,10.7187,10.6093,10.6093,10.7187,10.6914,10.75,10.8906,10.789,0.0,0.0,0.0,0.0,0.0,10.6493,10.5604,10.3705,10.3789,10.3086,10.2109,10.2109,10.2109,10.1992,10.1406,10.1211,10.0898,9.9492,9.9414,9.9726,9.8867,9.8164,9.7773,9.8125,9.9023,10.0195,10.1289,10.1797,10.2109,10.2383,10.2304,10.2187,10.2383,10.3203,10.3906,10.4101,10.4219,10.4297,10.4609,10.4414,10.4609,10.5703,10.6289,10.6797,10.7109,10.7109,10.7187,10.7617,10.7812,10.7812,10.7304,10.7383,10.7812,10.8398,10.9297,10.9492,10.8906,11.0,11.0703,11.0703,10.9492,10.9492,11.0703,10.9101,10.8281,10.8008,10.8906,10.8711,0.0,8.3594,8.3906,8.457,8.2031,7.8476,7.4922,7.1758,6.8789,6.5898,6.5039,6.5078,6.5937,6.582,6.7617,7.3867,7.7734,0.0,0.0,0.0,0.0,0.0,0.0,0.0,0.0,0.0,0.0,0.0,0.0,0.0,0.0,0.0,10.8593,10.8008,10.8008,10.7812,10.75,10.6797,10.6797,10.75,10.7304,10.8086,10.9687,0.0,0.0,0.0,0.0,0.0,0.0,10.7708,10.6786,10.5087,10.4988,10.4097,10.289,10.289,10.289,10.2812,10.2304,10.2109,10.1914,10.039,9.9883,9.9726,9.914,9.8633,9.8359,9.9258,9.9883,10.0586,10.1797,10.2187,10.25,10.2812,10.2617,10.25,10.2812,10.3789,10.4687,10.4687,10.4883,10.5195,10.5586,10.539,10.539,10.6289,10.6914,10.7187,10.7187,10.75,10.7812,10.8008,10.8593,10.9101,10.9414,10.9218,10.9218,10.9804,11.0312,11.039,10.9804,11.0781,11.1289,11.0898,10.9883,10.9687,11.039,10.8515,10.8008,10.8984,10.8906,10.8906,0.0,7.9023,7.8906,8.0469,7.7305,7.3672,7.293,6.9101,0.0,6.6719,6.625,6.5976,6.6914,6.6328,6.6211,6.7734,0.0,0.0,0.0,0.0,0.0,0.0,0.0,0.0,0.0,0.0,0.0,0.0,0.0,0.0,0.0,0.0,0.0,10.8086,10.8086,10.7695,10.6797,10.7617,10.7617,10.6797,10.7617,10.8906,11.0507,0.0,0.0,0.0,0.0,0.0,0.0,10.8488,10.759,10.6497,10.4897,10.3686,10.289,10.289,10.289,10.289,10.289,10.289,10.2812,10.1992,10.0586,9.9179,9.9101,9.9023,9.9101,10.0,10.0312,10.0703,10.2383,10.2304,10.1914,10.2695,10.2304,10.1914,10.2695,10.4297,10.5508,10.5508,10.6093,10.6992,10.7812,10.7187,10.6992,10.7812,10.8008,10.8008,10.8008,10.8711,10.8906,10.8281,10.9687,11.1015,11.1914,11.1211,11.0703,11.0781,11.0703,11.0703,11.0586,11.0703,11.0312,10.9492,10.9492,10.8984,10.8086,10.7304,10.8086,11.039,10.8789,10.8906,6.4023,0.0,6.6875,6.6601,6.664,6.6836,0.0,6.6992,6.664,0.0,0.0,6.7031,6.8555,6.7617,6.9258,0.0,0.0,0.0,0.0,0.0,0.0,0.0,0.0,0.0,0.0,0.0,0.0,0.0,0.0,0.0,0.0,0.0,0.0,10.8984,10.8984,10.8593,10.7695,10.789,10.789,10.7695,10.789,10.8589,10.9611,0.0,0.0,0.0,0.0,0.0,10.9308,10.9816,10.8684,10.6693,10.6185,10.4795,10.29,10.2888,10.289,10.289,10.289,10.289,10.289,10.2695,10.1914,10.0898,10.0195,9.9062,9.832,9.9883,10.0312,10.0703,10.2383,10.2695,10.2617,10.289,10.2695,10.2695,10.289,10.4297,10.5508,10.5508,10.6093,10.6797,10.6992,10.6797,10.6797,10.6992,10.7617,10.8008,10.8008,10.8203,10.8711,10.9883,11.1015,11.1914,11.2812,11.2109,11.1914,11.25,11.1992,11.1289,11.0586,11.1211,11.1484,11.1289,11.1289,11.0508,10.8984,10.8789,10.8711,10.8593,10.8203,10.8593,6.0625,6.1992,6.2969,6.289,6.4219,6.5625,6.6094,0.0,0.0,0.0,0.0,0.0,6.8008,0.0,0.0,0.0,0.0,0.0,0.0,0.0,0.0,0.0,0.0,0.0,0.0,0.0,0.0,0.0,0.0,0.0,0.0,0.0,0.0,0.0,10.8906,10.8515,10.8008,10.8008,10.7812,10.7383,10.7806,10.849,10.9308,10.841,0.0,0.0,0.0,0.0,11.0401,11.0089,10.8918,10.72,10.599,10.4389,10.2913,10.2917,10.2889,10.289,10.289,10.289,10.289,10.289,10.1992,10.1015,10.0898,9.9414,9.7969,9.9336,10.0,10.0586,10.1992,10.2617,10.289,10.289,10.3203,10.3398,10.3008,10.4297,10.5508,10.5508,10.6093,10.6797,10.7187,10.7304,10.7304,10.7304,10.7695,10.8008,10.8008,10.8281,10.8789,10.9297,11.0508,11.1484,11.1992,11.1914,11.2109,11.2617,11.1797,11.1289,11.1211,11.1601,11.1914,11.1914,11.1484,11.0781,10.9883,10.9101,10.8906,10.9218,10.8398,10.8906,6.1797,6.293,6.3867,6.4219,6.5625,6.6914,6.6914,0.0,0.0,0.0,0.0,0.0,0.0,0.0,0.0,0.0,0.0,0.0,0.0,0.0,0.0,0.0,0.0,0.0,0.0,0.0,0.0,0.0,0.0,0.0,0.0,0.0,0.0,0.0,10.8984,10.8515,10.8398,10.8086,10.7617,10.6912,10.758,10.841,10.9113,10.8293,0.0,0.0,0.0,0.0,11.1299,11.0206,10.8918,10.759,10.5404,10.3804,10.2913,10.2905,10.2884,10.289,10.289,10.289,10.289,10.289,10.1797,10.0586,10.1211,9.9765,9.8047,9.8789,9.9648,10.0508,10.1211,10.1992,10.2695,10.2695,10.3398,10.3789,10.3203,10.4492,10.5586,10.5508,10.6093,10.6914,10.7695,10.7812,10.7812,10.8008,10.8008,10.8008,10.8008,10.8593,10.8906,10.8281,10.9609,11.0586,11.0586,11.1289,11.1718,11.1718,11.1093,11.1093,11.1914,11.1914,11.1992,11.2109,11.1406,11.0898,11.0586,10.9101,10.8984,11.0195,10.8711,10.9297,6.3242,6.5625,6.6914,6.4805,6.5625,6.6914,0.0,0.0,0.0,0.0,0.0,0.0,0.0,0.0,0.0,0.0,0.0,0.0,0.0,0.0,0.0,0.0,0.0,0.0,0.0,0.0,0.0,0.0,0.0,0.0,0.0,0.0,0.0,0.0,0.0,11.0898,11.0195,10.8711,10.7884,10.7801,10.7911,10.8098,10.8215,10.8098,10.8098,0.0,0.0,11.0206,10.9816,11.0909,10.9581,10.6888,10.6497,10.4897,10.2913,10.2905,10.2884,10.289,10.289,10.289,10.289,10.289,10.2187,10.1289,10.0703,9.9687,9.8828,9.8945,9.9648,10.0312,10.0508,10.1094,10.1797,10.1797,10.25,10.3281,10.3906,10.5312,10.6289,10.5586,10.6093,10.6719,10.6914,10.6914,10.7109,10.789,10.8008,10.8008,10.8008,10.8086,10.8398,10.8984,11.0,11.0586,11.0586,11.0703,11.0781,11.0781,11.1406,11.1797,11.1914,11.1914,11.2187,11.3008,11.289,11.2109,11.0586,11.0312,10.9609,10.8398,10.8086,10.8984,6.3125,6.5156,6.7383,6.9922,7.0469,7.0234,0.0,0.0,0.0,0.0,0.0,0.0,0.0,0.0,0.0,0.0,0.0,0.0,0.0,0.0,0.0,0.0,0.0,0.0,0.0,0.0,0.0,0.0,0.0,0.0,0.0,0.0,0.0,0.0,11.1406,11.0781,10.9883,10.9101,10.8509,10.802,10.802,10.802,10.802,10.8488,10.8918,10.9386,0.0,11.0596,11.0596,11.0011,10.8488,10.6614,10.5717,10.4311,10.2913,10.2917,10.2889,10.289,10.289,10.289,10.289,10.289,10.2304,10.1601,10.1719,10.0781,9.9804,10.0312,10.039,10.039,10.0898,10.1601,10.2304,10.2304,10.3008,10.3594,10.3515,10.4804,10.5898,10.5586,10.6093,10.6797,10.7304,10.7383,10.75,10.789,10.8008,10.8008,10.8008,10.8008,10.8203,10.8593,10.8984,10.9218,10.9218,10.9218,10.9414,10.9883,11.1211,11.1914,11.1914,11.2383,11.2812,11.3203,11.3203,11.2617,11.1289,11.039,10.9492,10.8711,10.7695,10.8515,6.3008,6.4414,6.7226,0.0,0.0,0.0,0.0,0.0,0.0,0.0,0.0,0.0,0.0,0.0,0.0,0.0,0.0,0.0,0.0,0.0,0.0,0.0,0.0,0.0,0.0,0.0,0.0,0.0,0.0,0.0,0.0,0.0,0.0,0.0,11.1406,11.0507,10.9605,10.9605,10.9089,10.7996,10.7981,10.802,10.802,10.8918,10.9503,10.9894,11.0518,11.0987,11.1104,10.9503,10.8098,10.6888,10.5287,10.4007,10.2888,10.2886,10.289,10.289,10.289,10.289,10.289,10.289,10.2304,10.1719,10.2383,10.1484,10.0508,10.1601,10.1406,10.1015,10.1211,10.1914,10.2617,10.289,10.3594,10.4101,10.3789,10.5,10.6015,10.5781,10.6289,10.6914,10.7617,10.7695,10.7812,10.8008,10.8008,10.8008,10.8008,10.8008,10.8008,10.8008,10.8008,10.8008,10.8008,10.8203,10.8593,10.9297,11.0703,11.1718,11.1914,11.2695,11.3086,11.289,11.289,11.2383,11.1289,11.0,10.9297,10.9297,10.789,10.8515,6.375,6.4883,6.707,0.0,0.0,0.0,0.0,0.0,0.0,0.0,0.0,0.0,0.0,0.0,0.0,0.0,0.0,0.0,0.0,0.0,0.0,0.0,0.0,0.0,0.0,0.0,0.0,0.0,0.0,0.0,0.0,0.0,0.0,0.0,0.0,11.1399,11.0487,11.0487,10.9682,10.7987,10.7996,10.802,10.802,10.8918,10.8918,10.8293,11.0714,11.0909,10.9581,11.0987,11.0089,10.7786,10.6888,10.4997,10.2914,10.2889,10.289,10.289,10.289,10.289,10.289,10.289,10.2304,10.1601,10.1719,10.1015,10.0703,10.2304,10.2812,10.2383,10.0781,10.1015,10.1914,10.2695,10.3594,10.4609,10.6093,10.7187,10.7617,10.6797,10.6719,10.6719,10.6797,10.6797,10.7109,10.789,10.8008,10.8008,10.8008,10.8008,10.8008,10.8008,10.8008,10.8008,10.8008,10.8711,10.9218,10.9297,11.0195,11.1093,11.1914,11.2695,11.2812,11.1992,11.1992,11.1211,10.9492,10.9414,10.9297,10.9297,10.9218,10.9609,6.3008,6.414,6.7148,0.0,0.0,0.0,0.0,0.0,0.0,0.0,0.0,0.0,0.0,0.0,0.0,0.0,0.0,0.0,0.0,0.0,0.0,0.0,0.0,0.0,0.0,0.0,0.0,0.0,0.0,0.0,0.0,0.0,0.0,0.0,0.0,11.1517,11.0596,11.0089,10.9511,10.8784,10.9394,10.962,10.962,11.0518,11.0714,11.0401,11.0792,11.0909,11.0792,10.9816,10.8488,10.7005,10.5014,10.4007,10.3597,10.3113,10.2884,10.2884,10.289,10.289,10.289,10.289,10.2695,10.2383,10.2383,10.2187,10.2109,10.2695,10.3281,10.3711,10.3594,10.3789,10.4101,10.4414,10.4804,10.5195,10.5781,10.6601,10.7109,10.6797,10.7109,10.75,10.75,10.75,10.7617,10.8008,10.8008,10.8008,10.8008,10.8008,10.8008,10.8008,10.8008,10.8008,10.8008,10.8281,10.8515,10.8515,10.9804,11.1015,11.1914,11.1718,11.1718,11.1914,11.1406,11.0508,10.9297,10.8789,10.8789,10.9297,10.8711,10.9492,6.2344,6.3437,6.6758,0.0,0.0,0.0,0.0,0.0,0.0,0.0,0.0,0.0,0.0,0.0,0.0,0.0,0.0,0.0,0.0,0.0,0.0,0.0,0.0,0.0,0.0,0.0,0.0,0.0,0.0,0.0,0.0,0.0,0.0,0.0,0.0,0.0,11.0596,11.0011,10.9699,10.9699,11.0792,11.1104,11.0518,11.1416,11.1611,11.1416,11.0987,11.1182,11.1611,10.9113,10.7317,10.6107,10.4311,10.3804,10.4007,10.3207,10.3017,10.3295,10.3311,10.3318,10.3281,10.3281,10.3086,10.289,10.289,10.289,10.3008,10.3594,10.4219,10.4883,10.6015,10.5898,10.5586,10.5781,10.5898,10.6015,10.6211,10.6719,10.7109,10.7109,10.7617,10.8008,10.8008,10.8008,10.8007,10.8001,10.8007,10.8008,10.8008,10.8008,10.8008,10.8008,10.8008,10.8008,10.8008,10.8008,10.8008,10.8008,10.9101,11.0195,11.1015,11.0781,11.0781,11.1093,11.0508,10.9883,10.9297,10.8398,10.8711,11.0117,10.9218,10.9883,6.1914,6.3008,0.0,0.0,0.0,0.0,0.0,0.0,0.0,0.0,0.0,0.0,0.0,0.0,0.0,0.0,0.0,0.0,0.0,0.0,0.0,0.0,0.0,0.0,0.0,0.0,0.0,0.0,0.0,0.0,0.0,0.0,0.0,0.0,0.0,0.0,11.0596,11.0596,11.0596,11.0518,11.2314,11.2197,11.0596,11.1416,11.1299,11.0596,11.1416,11.1807,11.1611,10.9113,10.7005,10.5404,10.5404,10.4897,10.3999,10.3101,10.3413,10.4116,10.4194,10.4198,10.4219,10.4219,10.3594,10.289,10.289,10.289,10.3281,10.5,10.5508,10.5898,10.7617,10.6797,10.5703,10.6484,10.6719,10.6914,10.7812,10.8008,10.8008,10.8008,10.8008,10.8008,10.8008,10.8008,10.8003,10.7989,10.7995,10.8008,10.8008,10.8008,10.8008,10.8008,10.8008,10.8008,10.8008,10.8008,10.8008,10.8008,10.8008,10.8398,10.9297,11.0117,11.0195,10.9297,10.9297,10.9297,10.9297,10.8398,10.9414,11.1914,11.1015,11.1093,6.1758,0.0,0.0,0.0,0.0,0.0,0.0,0.0,0.0,0.0,0.0,0.0,0.0,0.0,0.0,0.0,0.0,0.0,0.0,0.0,0.0,0.0,0.0,0.0,0.0,0.0,0.0,0.0,0.0,0.0,0.0,0.0,0.0,0.0,0.0,0.0,10.9699,10.9699,11.0011,11.0518,11.1611,11.2197,11.2314,11.2587,11.2587,11.2314,11.2002,11.208,11.2509,11.0011,10.7903,10.6302,10.5599,10.5599,10.5795,10.5014,10.4819,10.5014,10.5014,10.5003,10.4988,10.4991,10.449,10.3789,10.3789,10.3789,10.3906,10.4414,10.539,10.6484,10.6992,10.7187,10.7304,10.7617,10.7617,10.7695,10.789,10.8008,10.8008,10.8008,10.7998,10.7987,10.8007,10.8005,10.7991,10.7989,10.8003,10.7987,10.8007,10.8008,10.7812,10.7187,10.7604,10.782,10.7117,10.7586,10.7991,10.8008,10.8008,10.8398,10.9297,10.8984,10.8906,10.9297,10.9297,10.9297,10.9297,10.9687,11.0195,11.1015,11.0703,11.0703,6.6055,0.0,0.0,0.0,0.0,0.0,0.0,0.0,0.0,0.0,0.0,0.0,0.0,0.0,0.0,0.0,0.0,0.0,0.0,0.0,0.0,0.0,0.0,0.0,0.0,0.0,0.0,0.0,0.0,0.0,0.0,0.0,0.0,0.0,0.0,0.0,11.0284,11.0284,11.0518,11.0987,11.1885,11.2392,11.2587,11.29,11.3095,11.3095,11.2509,11.1807,11.0987,11.0089,10.8605,10.6614,10.5717,10.5912,10.6614,10.5287,10.5287,10.5912,10.5912,10.5881,10.5895,10.5901,10.5409,10.4717,10.4683,10.4412,10.4294,10.4998,10.5701,10.6287,10.699,10.7615,10.8005,10.8007,10.8008,10.8008,10.8008,10.8005,10.7998,10.7998,10.7982,10.801,10.7995,10.7995,10.7982,10.7989,10.802,10.7996,10.7995,10.7998,10.7686,10.6787,10.719,10.7317,10.6693,10.72,10.7613,10.7995,10.8007,10.8202,10.8819,10.8319,10.8203,10.8789,10.8789,10.8984,10.9297,10.9492,10.9883,11.0586,11.0195,11.0508,0.0,0.0,0.0,0.0,0.0,0.0,0.0,0.0,0.0,0.0,0.0,0.0,0.0,0.0,0.0,0.0,0.0,0.0,0.0,0.0,0.0,0.0,0.0,0.0,0.0,0.0,0.0,0.0,0.0,0.0,0.0,0.0,0.0,0.0,0.0,0.0,11.1611,11.1689,11.1807,0.0,11.2704,11.2587,11.1807,11.2587,11.29,11.29,11.29,11.1104,10.8098,10.9699,10.8918,10.6614,10.5795,10.6107,10.6614,10.5014,10.5404,10.681,10.681,10.681,10.681,10.681,10.6185,10.5482,10.5516,10.4901,10.4589,10.619,10.6112,10.58,10.7518,10.7909,10.7913,10.8005,10.8007,10.8007,10.8007,10.7991,10.7981,10.7981,10.801,10.8021,10.7989,10.801,10.8021,10.7989,10.802,10.802,10.802,10.802,10.759,10.6693,10.6693,10.6693,10.6614,10.6693,10.7083,10.7903,10.7995,10.7998,10.7981,10.7995,10.8007,10.8007,10.8085,10.8515,10.9296,10.8593,10.9101,11.0586,10.9687,11.0117,0.0,0.0,0.0,0.0,0.0,0.0,0.0,0.0,0.0,0.0,0.0,0.0,0.0,0.0,0.0,0.0,0.0,0.0,0.0,0.0,0.0,0.0,0.0,0.0,0.0,0.0,0.0,0.0,0.0,0.0,0.0,0.0,0.0,0.0,0.0,11.0714,10.9816,11.1104,11.1807,0.0,11.2704,11.2587,11.1807,11.2002,11.1689,11.1104,11.1807,11.0518,10.8098,10.9113,10.841,10.6693,10.6497,10.7005,10.759,10.6497,10.681,10.7708,10.7708,10.7708,10.7708,10.7708,10.7083,10.6419,10.6388,10.581,10.5302,10.6395,10.6083,10.581,10.7489,10.7489,10.7215,10.7808,10.7987,10.7998,10.7998,10.7991,10.8016,10.7989,10.7989,10.7989,10.7981,10.7989,10.7989,10.7981,10.802,10.802,10.802,10.802,10.7395,10.5795,10.6302,10.638,10.5717,10.6302,10.7083,10.7903,10.7996,10.7996,10.7981,10.7996,10.8003,10.8003,10.8706,10.9096,10.9292,10.9806,11.0217,11.0586,10.9687,10.9492,0.0,0.0,0.0,0.0,0.0,0.0,0.0,0.0,0.0,0.0,0.0,0.0,0.0,0.0,0.0,0.0,0.0,0.0,0.0,0.0,0.0,0.0,0.0,0.0,0.0,0.0,0.0,0.0,0.0,0.0,0.0,0.0,0.0,0.0,11.1104,11.0714,10.9894,11.0401,11.0987,11.1807,11.1416,11.0987,11.0596,11.0987,11.0714,11.0011,11.0401,10.9581,10.802,10.8488,10.8098,10.7317,10.6888,10.72,10.7903,10.7005,10.7317,10.802,10.802,10.802,10.802,10.802,10.7708,10.7317,10.7317,10.6693,10.6185,10.7083,10.6419,10.5717,10.7005,10.6693,10.6185,10.6614,10.7684,10.8517,10.8088,10.8283,10.8511,10.8098,10.802,10.802,10.802,10.802,10.802,10.802,10.802,10.802,10.802,10.802,10.7512,10.6185,10.638,10.6497,10.6107,10.6419,10.7083,10.7903,10.802,10.802,10.802,10.802,10.802,10.802,10.841,10.8684,10.8684,10.9113,10.9409,10.9401,10.9296,10.9297,0.0,0.0,0.0,0.0,0.0,0.0,0.0,0.0,0.0,0.0,0.0,0.0,0.0,0.0,0.0,0.0,0.0,0.0,0.0,0.0,0.0,0.0,0.0,0.0,0.0,0.0,0.0,0.0,0.0,0.0,0.0,0.0,11.1299,11.1104,11.1299,11.0987,11.0284,10.9581,11.0089,11.1611,11.0011,10.9191,10.9113,10.9581,10.9581,10.9113,10.8918,10.8488,10.802,10.7708,10.759,10.7708,10.681,10.7005,10.7708,10.7005,10.7317,10.802,10.802,10.802,10.802,10.802,10.802,10.802,10.7786,10.72,10.6614,10.7317,10.6419,10.5404,10.6185,10.6107,10.5599,10.5404,10.7317,10.8801,10.802,10.8293,10.8605,10.7903,10.7786,10.7786,10.802,10.802,10.802,10.802,10.802,10.802,10.802,10.802,10.7708,10.681,10.6693,10.6693,10.6693,10.6693,10.7083,10.7903,10.802,10.802,10.802,10.802,10.802,10.802,10.802,10.802,10.802,10.802,10.8098,10.8215,10.8815,10.9217,0.0,0.0,0.0,0.0,0.0,0.0,0.0,0.0,0.0,0.0,0.0,0.0,0.0,0.0,0.0,0.0,0.0,0.0,0.0,0.0,0.0,0.0,0.0,0.0,0.0,0.0,0.0,0.0,0.0,0.0,0.0,10.9816,10.9308,10.8488,10.9191,10.9581,10.9503,10.9386,10.9816,11.0714,10.9699,10.8918,10.8215,10.7512,10.759,10.8098,10.7395,10.7395,10.7903,10.6419,10.6185,10.681,10.5912,10.6107,10.6888,10.6693,10.7317,10.802,10.802,10.802,10.802,10.802,10.802,10.7903,10.7083,10.6302,10.5599,10.5717,10.5014,10.4506,10.5287,10.599,10.6302,10.5599,10.681,10.7903,10.7083,10.7005,10.7005,10.6888,10.6888,10.7083,10.7903,10.802,10.802,10.802,10.802,10.802,10.802,10.802,10.7708,10.681,10.6693,10.6693,10.6693,10.6693,10.7083,10.7903,10.802,10.802,10.802,10.802,10.802,10.802,10.802,10.802,10.802,10.802,10.841,10.9113,10.8496,10.8612,0.0,0.0,0.0,0.0,0.0,0.0,0.0,0.0,0.0,0.0,0.0,0.0,0.0,0.0,0.0,0.0,0.0,0.0,0.0,0.0,0.0,0.0,0.0,0.0,0.0,0.0,0.0,0.0,0.0,0.0,11.0011,10.8605,10.8098,10.8684,10.7708,10.7317,10.7786,10.6888,10.6614,10.6888,10.7512,10.7395,10.6497,10.5599,10.5482,10.5795,10.5404,10.5717,10.6497,10.5717,10.5912,10.6693,10.6302,10.638,10.6693,10.6693,10.7317,10.802,10.802,10.7708,10.7395,10.7786,10.7708,10.72,10.681,10.638,10.599,10.5482,10.4819,10.4116,10.3999,10.4194,10.4311,10.3413,10.4194,10.5092,10.5209,10.638,10.7317,10.681,10.6693,10.681,10.72,10.7708,10.802,10.802,10.802,10.802,10.802,10.802,10.7903,10.7512,10.7395,10.7395,10.7395,10.7395,10.759,10.802,10.802,10.802,10.802,10.802,10.802,10.802,10.802,10.802,10.802,10.802,10.8215,10.8605,10.8684,10.8706,0.0,0.0,0.0,0.0,0.0,0.0,0.0,0.0,0.0,0.0,0.0,0.0,0.0,0.0,0.0,0.0,0.0,0.0,0.0,0.0,0.0,0.0,0.0,0.0,0.0,0.0,0.0,0.0,0.0,0.0,10.9894,10.7903,10.7317,10.8605,10.6497,10.5717,10.638,10.5092,10.4116,10.3491,10.5404,10.5912,10.5092,10.4584,10.4194,10.3804,10.3999,10.4584,10.5404,10.5209,10.5599,10.6302,10.6107,10.6185,10.638,10.638,10.681,10.7317,10.7317,10.7083,10.681,10.72,10.7005,10.6614,10.5912,10.599,10.6107,10.4819,10.4389,10.4194,10.3101,10.2984,10.2906,10.2008,10.2281,10.2984,10.3882,10.5795,10.72,10.681,10.6693,10.681,10.7005,10.759,10.802,10.802,10.802,10.802,10.802,10.802,10.802,10.802,10.802,10.802,10.802,10.802,10.802,10.802,10.802,10.802,10.802,10.802,10.802,10.802,10.802,10.802,10.802,10.802,10.802,10.802,10.8684,10.8605,0.0,0.0,0.0,0.0,0.0,0.0,0.0,0.0,0.0,0.0,0.0,0.0,0.0,0.0,0.0,0.0,0.0,0.0,0.0,0.0,0.0,0.0,0.0,0.0,0.0,0.0,0.0,0.0,0.0,0.0,10.8215,10.72,10.6693,10.681,10.5912,10.5404,10.5482,10.5404,10.4116,10.1696,10.4194,10.5014,10.4194,10.5014,10.4389,10.2906,10.3687,10.4584,10.5287,10.4506,10.4702,10.5404,10.4584,10.4702,10.5482,10.5482,10.5482,10.5482,10.5482,10.599,10.6614,10.5795,10.6107,10.6185,10.3804,10.4194,10.4897,10.2398,10.3491,10.4897,10.3218,10.3413,10.3804,10.2906,10.2789,10.2984,10.3882,10.4897,10.5795,10.6497,10.6693,10.7005,10.7786,10.802,10.802,10.802,10.802,10.802,10.802,10.802,10.802,10.802,10.802,10.802,10.802,10.802,10.802,10.802,10.802,10.802,10.802,10.802,10.802,10.802,10.802,10.802,10.802,10.802,10.802,10.802,10.802,10.802,0.0,0.0,0.0,0.0,0.0,0.0,0.0,0.0,0.0,0.0,0.0,0.0,0.0,0.0,0.0,0.0,0.0,0.0,0.0,0.0,0.0,0.0,0.0,0.0,0.0,0.0,0.0,0.0,0.0,0.0,10.6701,10.5477,10.4987,10.5611,10.4402,10.3491,10.2906,10.2906,10.2398,10.15,10.2984,10.3608,10.3296,10.3608,10.3413,10.2789,10.3687,10.4311,10.4506,10.4194,10.4584,10.5404,10.5092,10.5482,10.6185,10.5599,10.5795,10.6185,10.5599,10.5209,10.5092,10.5287,10.4897,10.4116,10.3687,10.4116,10.4389,10.3413,10.3804,10.4311,10.3101,10.2593,10.2398,10.2008,10.2008,10.2203,10.3101,10.3999,10.4819,10.5717,10.5912,10.6107,10.7005,10.72,10.681,10.5717,10.6888,10.7395,10.5717,10.7005,10.802,10.802,10.802,10.802,10.802,10.802,10.802,10.802,10.802,10.802,10.802,10.802,10.802,10.802,10.802,10.802,10.802,10.802,10.802,10.802,10.802,10.802,0.0,0.0,0.0,0.0,0.0,0.0,0.0,0.0,0.0,0.0,0.0,0.0,0.0,0.0,0.0,0.0,0.0,0.0,0.0,0.0,0.0,0.0,0.0,0.0,0.0,0.0,0.0,0.0,0.0,0.0,10.5925,10.4385,10.3798,10.4082,10.3279,10.2086,10.0681,10.15,10.15,10.0681,10.2086,10.2789,10.2789,10.3101,10.3218,10.3296,10.3804,10.3882,10.3687,10.3999,10.4584,10.5404,10.5092,10.5717,10.6614,10.5404,10.5287,10.5717,10.4819,10.4311,10.4116,10.4389,10.3687,10.2906,10.3101,10.3413,10.3608,10.3296,10.3413,10.3491,10.2984,10.2203,10.1383,10.1188,10.1305,10.1696,10.2593,10.3687,10.4702,10.5287,10.6107,10.6693,10.6693,10.72,10.7005,10.5209,10.6693,10.7395,10.5599,10.6888,10.802,10.802,10.802,10.802,10.802,10.802,10.802,10.802,10.802,10.802,10.802,10.802,10.8098,10.841,10.841,10.8605,10.8801,10.8293,10.802,10.802,10.802,10.802,0.0,0.0,0.0,0.0,0.0,0.0,0.0,0.0,0.0,0.0,0.0,0.0,0.0,0.0,0.0,0.0,0.0,0.0,0.0,0.0,0.0,0.0,0.0,0.0,0.0,0.0,0.0,0.0,0.0,10.5823,10.5823,10.4308,10.3099,10.2484,10.2704,10.1618,9.908,10.15,10.15,9.9119,10.1618,10.2789,10.2789,10.3687,10.4116,10.4116,10.4116,10.3687,10.2906,10.3804,10.4584,10.5287,10.4506,10.5209,10.6497,10.478,10.4194,10.3999,10.3101,10.3413,10.3999,10.3101,10.2789,10.2593,10.1813,10.2086,10.2593,10.1696,10.2086,10.2789,10.2711,10.2086,10.1188,10.0407,10.0915,10.1696,10.2593,10.4116,10.5404,10.5404,10.7512,10.8684,10.7005,10.8098,10.8605,10.6888,10.7317,10.7903,10.7903,10.7903,10.7903,10.802,10.802,10.802,10.802,10.802,10.802,10.802,10.802,10.802,10.8098,10.8098,10.8488,10.9308,10.9308,10.9699,11.0518,10.8918,10.8098,10.8098,10.802,10.802,5.373,0.0,0.0,0.0,0.0,0.0,0.0,0.0,0.0,0.0,0.0,0.0,0.0,0.0,0.0,0.0,0.0,0.0,0.0,0.0,0.0,0.0,0.0,0.0,0.0,0.0,0.0,0.0,10.49,10.4206,10.3511,10.2821,10.2207,10.1807,10.1805,10.1188,9.9939,10.1188,10.15,10.0798,10.2203,10.2515,10.1891,10.3413,10.3804,10.3218,10.4506,10.4897,10.4702,10.4311,10.4584,10.5404,10.5795,10.6693,10.7395,10.5717,10.5404,10.5717,10.3491,10.3804,10.4819,10.3296,10.2398,10.1813,10.1618,10.1305,10.111,10.1383,10.1696,10.1618,10.0407,9.9861,9.9627,9.9392,10.0017,10.0915,10.1696,10.3218,10.4506,10.4506,10.6107,10.7083,10.599,10.6693,10.6614,10.4194,10.4584,10.5209,10.5209,10.5209,10.5912,10.7786,10.802,10.802,10.802,10.802,10.8293,10.8918,10.8918,10.9191,10.9816,10.9816,10.9894,11.0206,11.0206,11.0284,11.0518,11.0011,10.9816,10.9816,10.9191,10.8918,0.0,0.0,0.0,0.0,0.0,0.0,0.0,0.0,0.0,0.0,0.0,0.0,0.0,0.0,0.0,0.0,0.0,0.0,0.0,0.0,0.0,0.0,0.0,0.0,0.0,0.0,0.0,0.0,10.4597,10.3406,10.2285,10.2096,10.1992,10.1813,10.1885,10.1601,10.0693,10.1601,10.1891,10.15,10.2398,10.2515,10.2086,10.3491,10.3999,10.3882,10.5014,10.5599,10.5912,10.5404,10.5482,10.599,10.6107,10.6693,10.72,10.5482,10.5404,10.5795,10.3218,10.3218,10.3999,10.2281,10.1188,10.0485,10.0915,10.0681,10.0485,10.1305,10.15,10.111,9.9431,9.9275,9.9548,9.9548,10.0212,10.0993,10.1891,10.3413,10.4506,10.4194,10.5795,10.6888,10.5599,10.7005,10.7395,10.4819,10.5482,10.6107,10.5795,10.5717,10.6302,10.7786,10.802,10.8098,10.8488,10.8488,10.8918,10.9699,10.9816,11.0011,11.0518,11.0518,11.0714,11.0987,11.0987,11.1182,11.1611,11.0909,11.0518,11.0518,10.9699,10.9308,0.0,0.0,0.0,0.0,0.0,0.0,0.0,6.7647,0.0,0.0,0.0,0.0,0.0,0.0,0.0,0.0,0.0,0.0,0.0,0.0,0.0,0.0,0.0,0.0,0.0,0.0,10.6097,10.602,10.4482,10.3096,10.178,10.1879,10.1992,10.2016,10.249,10.2203,10.1205,10.2203,10.2412,10.1796,10.2499,10.2898,10.2984,10.3882,10.4819,10.5404,10.5599,10.6107,10.681,10.681,10.6693,10.6497,10.5912,10.6107,10.6497,10.5014,10.4897,10.5287,10.2593,10.2281,10.2906,10.0915,9.9822,9.9392,9.9978,10.0212,10.029,10.0993,10.1188,10.0915,9.9275,9.9588,10.029,10.0212,10.0798,10.1696,10.2515,10.3882,10.4897,10.4116,10.6107,10.7395,10.5599,10.8098,10.9503,10.7083,10.7981,10.8801,10.8098,10.7786,10.7786,10.802,10.8098,10.8488,10.9191,10.9386,10.9816,11.0596,11.0596,11.0714,11.0792,11.0792,11.1182,11.1885,11.1885,11.2314,11.3095,11.1494,11.0792,11.0792,11.0011,10.9503,0.0,0.0,0.0,0.0,0.0,0.0,0.0,6.1059,0.0,0.0,0.0,0.0,0.0,0.0,0.0,0.0,0.0,0.0,0.0,0.0,0.0,0.0,0.0,0.0,0.0,0.0,10.4097,10.3405,10.2404,10.1824,10.1703,10.1718,10.1592,10.1099,10.1795,10.1777,10.0918,10.1816,10.2594,10.3308,10.3386,10.3608,10.3882,10.5482,10.5912,10.5482,10.6888,10.759,10.7708,10.7708,10.6888,10.5795,10.7005,10.72,10.6693,10.6302,10.6693,10.7005,10.3687,10.3999,10.5287,10.15,10.0603,10.0798,9.9627,9.9236,9.9275,9.9431,9.9509,9.9236,9.8221,9.9119,10.0095,9.9431,10.0407,10.15,10.1696,10.2593,10.3296,10.3101,10.5717,10.72,10.478,10.72,10.8918,10.7005,10.7005,10.7395,10.7903,10.681,10.6419,10.7903,10.8605,10.9113,10.9308,10.9894,11.0596,11.1494,11.1494,11.1885,11.2587,11.2587,11.2704,11.2783,11.2783,11.29,11.3095,11.2783,11.2587,11.2587,11.1689,11.0909,0.0,0.0,0.0,0.0,0.0,0.0,0.0,0.0,0.0,0.0,0.0,0.0,0.0,0.0,0.0,0.0,0.0,0.0,0.0,0.0,0.0,0.0,0.0,0.0,0.0,0.0,10.2597,10.2597,10.2212,10.1709,10.1084,10.1502,10.137,10.0611,10.1594,10.1788,10.1309,10.1788,10.2589,10.3511,10.3511,10.3801,10.4393,10.5718,10.6115,10.5909,10.7196,10.7894,10.802,10.7512,10.6614,10.5482,10.6419,10.6419,10.5912,10.5092,10.5287,10.5717,10.3101,10.2984,10.3608,10.0603,9.9627,9.9431,9.8612,9.8963,9.9666,9.9666,9.9666,9.9548,9.9119,9.9666,10.029,10.029,10.1188,10.2086,10.2086,10.2789,10.3296,10.2906,10.4897,10.6419,10.5482,10.72,10.8488,10.8098,10.7981,10.8215,10.8605,10.7903,10.7708,10.8605,10.8996,10.9503,10.9894,11.0284,11.0909,11.1689,11.1807,11.2002,11.2392,11.2509,11.2704,11.3095,11.3095,11.3095,11.3095,11.3095,11.3095,11.3095,11.1807,11.0909,0.0,0.0,0.0,0.0,0.0,5.8688,0.0,0.0,0.0,6.447,0.0,0.0,0.0,0.0,0.0,0.0,0.0,0.0,0.0,0.0,0.0,0.0,0.0,0.0,0.0,0.0,10.0096,10.1289,10.1096,10.0593,9.99,10.0788,10.0982,10.0093,10.1071,10.1719,10.16,10.2,10.2708,10.3704,10.3704,10.4195,10.5099,10.5823,10.6305,10.6524,10.7187,10.762,10.7805,10.6908,10.6088,10.5503,10.5387,10.5287,10.5014,10.3804,10.3687,10.4116,10.2398,10.1891,10.1696,9.9797,9.8529,9.7817,9.8012,9.8792,9.9729,10.01,10.0109,10.0001,10.0204,10.0407,10.0681,10.1305,10.2203,10.2789,10.2789,10.3413,10.3608,10.2906,10.3882,10.5209,10.599,10.72,10.8215,10.8684,10.9386,10.9699,10.9308,10.9386,10.9503,10.9308,10.9386,10.9699,11.0206,11.0596,11.0987,11.1494,11.1689,11.1807,11.1807,11.2002,11.2392,11.3095,11.3095,11.3095,11.3095,11.3095,11.3095,11.3095,11.1689,11.0909,0.0,0.0,0.0,0.0,6.1627,0.0,0.0,0.0,0.0,5.731,0.0,0.0,0.0,0.0,0.0,0.0,0.0,0.0,0.0,0.0,0.0,0.0,0.0,0.0,0.0,0.0,0.0,9.6826,9.5595,9.5632,9.7747,9.9402,9.9864,9.9017,9.9863,10.071,10.1327,10.2097,10.3476,10.5318,10.5318,10.5817,10.6911,10.6989,10.7129,10.7114,10.7192,10.7309,10.7199,10.6383,10.5916,10.5804,10.5492,10.4897,10.4311,10.4897,10.5209,10.5014,10.3296,10.3218,10.3405,10.0723,9.9051,9.8274,9.9052,9.8412,9.7752,9.9468,9.9396,9.9033,10.0001,10.0798,10.1383,10.15,10.2203,10.2789,10.2789,10.2906,10.2906,10.2789,10.2984,10.3413,10.4194,10.6419,10.7786,10.7083,10.9581,11.0987,10.9503,10.9894,11.0089,10.9386,10.9894,11.0089,10.9503,11.0792,11.1416,11.0714,11.1416,11.1807,11.1807,11.2509,11.3017,11.3095,11.3095,11.3095,11.3095,11.3095,11.3095,11.3095,11.29,11.2392,0.0,0.0,0.0,0.0,0.0,0.0,0.0,0.0,5.7653,0.0,0.0,0.0,0.0,0.0,0.0,0.0,0.0,0.0,0.0,0.0,0.0,0.0,0.0,0.0,0.0,0.0,0.0,0.0,0.0,9.3364,9.5903,9.7673,9.8404,9.8057,9.9365,10.0481,10.1289,10.2212,10.3483,10.5291,10.5291,10.5788,10.6701,10.6701,10.7105,10.7716,10.7212,10.7298,10.7804,10.5901,10.5085,10.4992,10.39,10.362,10.3698,10.3503,10.3503,10.3387,10.2607,10.2279,10.189,10.0203,9.9324,9.9002,9.9413,9.9374,9.928,9.956,9.9795,10.0008,10.0509,10.0799,10.1188,10.1695,10.2101,10.2413,10.2413,10.2514,10.262,10.262,10.2714,10.2906,10.3296,10.5092,10.6693,10.7395,10.8684,10.9699,11.0011,11.0284,11.0596,11.0714,11.1104,11.0909,11.0089,11.0596,11.0714,10.9894,11.0596,11.0987,11.0987,11.2392,11.3095,11.3095,11.3095,11.3095,11.3095,11.3095,11.2783,11.2314,11.2314,11.1885,0.0,0.0,0.0,0.0,0.0,0.0,0.0,0.0,0.0,0.0,0.0,0.0,0.0,0.0,0.0,0.0,0.0,0.0,0.0,0.0,0.0,0.0,0.0,0.0,0.0,0.0,0.0,0.0,0.0,0.0,9.3749,9.5749,9.6826,9.6826,9.8711,10.0212,10.1289,10.2404,10.3905,10.579,10.5597,10.5905,10.6713,10.6521,10.6873,10.7632,10.7014,10.7111,10.7716,10.5391,10.4383,10.4189,10.2483,10.229,10.2783,10.2318,10.2094,10.2094,10.2094,10.1619,10.0884,10.0302,9.9901,9.9654,9.9654,9.9925,10.0224,9.985,9.9992,10.0482,10.1021,10.1006,10.1006,10.1899,10.2094,10.2094,10.2094,10.2303,10.2379,10.2507,10.262,10.2605,10.282,10.3999,10.5599,10.7083,10.7708,10.8605,11.0284,11.0284,11.0518,11.1416,11.1182,11.0792,10.9894,11.0011,10.9894,10.9308,10.9816,11.0401,11.0792,11.1807,11.2509,11.2704,11.2509,11.2392,11.2392,11.2587,11.2392,11.1807,11.1807,11.1299,0.0,0.0,0.0,0.0,0.0,0.0,0.0,0.0,5.9435,0.0,0.0,0.0,0.0,0.0,0.0,0.0,0.0,0.0,0.0,0.0,0.0,0.0,0.0,0.0,0.0,0.0,0.0,0.0,0.0,0.0,9.0979,9.371,9.5057,9.5057,9.7519,9.9635,10.1289,10.2981,10.5097,10.7598,10.679,10.679,10.7598,10.679,10.6405,10.6482,10.6367,10.6407,10.6292,10.4599,10.3906,10.3713,10.202,10.1289,10.1404,10.1891,10.2094,10.2094,10.2094,10.1879,10.1696,10.158,10.0921,10.0096,10.0096,9.9519,9.9054,10.0125,9.9762,9.9619,10.1594,10.1394,10.1006,10.1899,10.2094,10.2094,10.2094,10.2094,10.2222,10.2413,10.2304,10.2304,10.2714,10.3491,10.4389,10.5287,10.6888,10.8605,11.0284,10.9816,10.9581,11.0518,10.9816,10.8996,10.8215,10.8918,10.9308,10.9308,10.9308,11.0089,11.1689,11.0987,11.0987,11.1807,11.0987,11.0596,11.0596,11.1416,11.1807,11.1807,11.1807,11.1299,0.0,0.0,6.9744,6.659,0.0,0.0,0.0,0.0,0.0,0.0,0.0,0.0,0.0,0.0,0.0,0.0,0.0,0.0,0.0,0.0,0.0,0.0,0.0,0.0,0.0,0.0,0.0,0.0,0.0,0.0,0.0,8.994,9.2402,9.4095,9.6596,9.9019,10.1289,10.252,10.4597,10.7713,10.679,10.7098,10.8406,10.7021,10.729,10.879,10.7098,10.6713,10.7098,10.4789,10.3597,10.2904,10.1789,10.1289,10.1328,10.0891,10.1109,10.1611,10.1611,10.1469,10.14,10.14,10.1211,10.0904,10.0904,10.0712,10.0519,10.0901,10.0784,10.0704,10.1423,10.1418,10.1225,10.1495,10.1611,10.1611,10.1611,10.1696,10.1902,10.1983,10.2007,10.2178,10.2303,10.3201,10.4193,10.5201,10.6419,10.7786,10.9503,10.9503,10.9581,11.0401,11.0284,10.9816,10.8918,10.8605,10.841,10.841,10.8996,10.9581,11.0089,11.0401,11.0596,11.0909,11.0714,11.0518,11.0518,11.1416,11.1494,11.0987,11.1494,11.1611,7.5976,7.5168,0.0,0.0,6.9013,0.0,0.0,0.0,0.0,0.0,0.0,0.0,0.0,0.0,0.0,0.0,0.0,0.0,0.0,0.0,0.0,0.0,0.0,0.0,0.0,0.0,6.8436,7.1937,0.0,0.0,0.0,0.0,9.0056,9.2287,9.6019,9.9058,10.1289,10.252,10.4597,10.7713,10.679,10.7098,10.8406,10.6713,10.6982,10.8713,10.6521,10.602,10.6597,10.4405,10.3097,10.252,10.1597,10.1289,10.1212,10.0712,10.0712,10.0789,10.0519,10.0596,10.0904,10.0904,10.1096,10.1289,10.1289,10.1289,10.1289,10.1289,10.1289,10.1289,10.1289,10.1289,10.1289,10.1289,10.1289,10.1289,10.1289,10.14,10.1572,10.1703,10.2107,10.2487,10.2594,10.3508,10.44,10.5102,10.609,10.7395,10.9503,10.9191,10.9308,11.0401,11.0011,10.9386,10.8918,10.8293,10.802,10.802,10.8488,10.8996,10.9308,10.9503,10.9816,11.0089,10.9816,10.962,10.962,11.1104,11.1416,11.0518,11.2002,11.2392]},{"header":{"parameterUnit":"m.s-1","parameterCategory":1,"la1":30.6,"la2":29.2853,"lo1":-89.7004,"lo2":-87.6739,"dy":0.0162,"dx":0.0183,"nx":112,"ny":82,"refTime":"2025-11-05T12:00:00:Z","depth":0,"parameterNumber":3,"parameterNumberName":"V-component_of_WINDS"},"data":[0.0,0.0,0.0,0.0,0.0,0.0,0.0,0.0,0.0,0.0,0.0,0.0,0.0,0.0,0.0,0.0,0.0,0.0,0.0,0.0,0.0,0.0,0.0,0.0,0.0,0.0,0.0,0.0,0.0,0.0,0.0,0.0,0.0,0.0,0.0,0.0,0.0,0.0,0.0,0.0,0.0,0.0,0.0,0.0,0.0,0.0,0.0,0.0,0.0,0.0,0.0,0.0,0.0,0.0,0.0,0.0,0.0,0.0,0.0,0.0,0.0,0.0,0.0,0.0,0.0,0.0,0.0,0.0,0.0,0.0,0.0,0.0,0.0,0.0,0.0,0.0,0.0,0.0,0.0,0.0,0.0,0.0,0.0,0.0,0.0,0.0,0.0,0.0,0.0,0.0,0.0,0.0,-1.4,-1.4665,-1.4557,-1.4482,-1.3885,-1.2583,0.0,0.0,0.0,0.0,0.0,0.0,0.0,0.0,0.0,0.0,0.0,0.0,0.0,0.0,0.0,0.0,0.0,0.0,0.0,0.0,0.0,0.0,0.0,0.0,0.0,0.0,0.0,0.0,0.0,0.0,0.0,0.0,0.0,0.0,0.0,0.0,0.0,0.0,0.0,0.0,0.0,0.0,0.0,0.0,0.0,0.0,0.0,0.0,0.0,0.0,0.0,0.0,0.0,0.0,0.0,0.0,0.0,0.0,0.0,0.0,0.0,0.0,0.0,0.0,0.0,0.0,0.0,0.0,0.0,0.0,0.0,0.0,0.0,0.0,0.0,0.0,0.0,0.0,0.0,0.0,0.0,0.0,0.0,0.0,0.0,0.0,0.0,0.0,0.0,0.0,0.0,0.0,0.0,0.0,0.0,0.0,0.0,0.0,0.0,0.0,0.0,0.0,0.0,0.0,-1.2054,-1.3695,-1.4278,-1.459,-1.4699,-1.436,-1.3668,-1.2569,0.0,0.0,0.0,0.0,0.0,0.0,0.0,0.0,0.0,0.0,0.0,0.0,0.0,0.0,0.0,0.0,0.0,0.0,0.0,0.0,0.0,0.0,0.0,0.0,0.0,0.0,0.0,0.0,0.0,0.0,0.0,0.0,0.0,0.0,0.0,0.0,0.0,0.0,0.0,0.0,0.0,0.0,0.0,0.0,0.0,0.0,0.0,0.0,0.0,0.0,0.0,0.0,0.0,0.0,0.0,0.0,0.0,0.0,0.0,0.0,0.0,0.0,0.0,0.0,0.0,0.0,0.0,0.0,0.0,0.0,0.0,0.0,0.0,0.0,0.0,0.0,0.0,0.0,0.0,0.0,0.0,0.0,0.0,0.0,0.0,0.0,0.0,0.0,0.0,0.0,0.0,0.0,0.0,0.0,0.0,0.0,0.0,0.0,0.0,0.0,0.0,0.0,0.0,-1.1898,-1.2678,-1.415,-1.4428,-1.457,-1.4726,-1.4326,-1.362,-1.2569,-1.1918,0.0,0.0,0.0,0.0,0.0,0.0,0.0,0.0,0.0,0.0,0.0,0.0,0.0,0.0,0.0,0.0,0.0,0.0,0.0,0.0,0.0,0.0,0.0,0.0,0.0,0.0,0.0,0.0,0.0,0.0,0.0,0.0,0.0,0.0,0.0,0.0,0.0,0.0,0.0,0.0,0.0,0.0,0.0,0.0,0.0,0.0,0.0,0.0,0.0,0.0,0.0,0.0,0.0,0.0,0.0,0.0,0.0,0.0,0.0,0.0,0.0,0.0,0.0,0.0,0.0,0.0,0.0,0.0,0.0,0.0,0.0,0.0,0.0,0.0,0.0,0.0,0.0,0.0,0.0,0.0,0.0,0.0,0.0,0.0,0.0,0.0,0.0,0.0,0.0,0.0,0.0,0.0,0.0,0.0,0.0,0.0,0.0,0.0,0.0,0.0,0.0,0.0,-1.2487,-1.313,-1.4346,-1.4283,-1.433,-1.4624,-1.4129,-1.3403,-1.2306,-1.1266,0.0,0.0,0.0,0.0,0.0,0.0,0.0,0.0,0.0,0.0,0.0,0.0,0.0,0.0,0.0,0.0,0.0,0.0,0.0,0.0,0.0,0.0,0.0,0.0,0.0,0.0,0.0,0.0,0.0,0.0,0.0,0.0,0.0,0.0,0.0,0.0,0.0,0.0,0.0,0.0,0.0,0.0,0.0,0.0,0.0,0.0,0.0,0.0,0.0,0.0,0.0,0.0,0.0,0.0,0.0,0.0,0.0,0.0,0.0,0.0,0.0,0.0,0.0,0.0,0.0,0.0,0.0,0.0,0.0,0.0,0.0,0.0,0.0,0.0,0.0,0.0,0.0,0.0,0.0,0.0,0.0,0.0,0.0,0.0,0.0,0.0,0.0,0.0,0.0,0.0,0.0,0.0,0.0,0.0,0.0,0.0,0.0,0.0,0.0,0.0,0.0,0.0,-1.2344,-1.3095,-1.4245,-1.3958,-1.3787,-1.4333,-1.3539,-1.2608,-1.1684,-1.0327,0.0,0.0,0.0,0.0,0.0,0.0,0.0,0.0,0.0,0.0,0.0,0.0,0.0,0.0,0.0,0.0,0.0,0.0,0.0,0.0,0.0,0.0,0.0,0.0,0.0,0.0,0.0,0.0,0.0,0.0,0.0,0.0,0.0,0.0,0.0,0.0,0.0,0.0,0.0,0.0,0.0,0.0,0.0,0.0,0.0,0.0,0.0,0.0,0.0,0.0,0.0,0.0,0.0,0.0,0.0,0.0,0.0,0.0,0.0,0.0,0.0,0.0,0.0,0.0,0.0,0.0,0.0,0.0,0.0,0.0,0.0,0.0,0.0,0.0,0.0,0.0,0.0,0.0,0.0,0.0,0.0,0.0,0.0,0.0,0.0,0.0,0.0,0.0,0.0,0.0,0.0,0.0,0.0,0.0,0.0,0.0,0.0,0.0,0.0,0.0,0.0,0.0,-1.1908,-1.2529,0.0,-1.3205,-1.3136,-1.3401,-1.2796,-1.2096,-1.1214,0.0,0.0,0.0,0.0,0.0,0.0,0.0,0.0,0.0,0.0,0.0,0.0,0.0,0.0,0.0,0.0,0.0,0.0,0.0,0.0,0.0,0.0,0.0,0.0,0.0,0.0,0.0,0.0,0.0,0.0,0.0,0.0,0.0,0.0,0.0,0.0,0.0,0.0,0.0,0.0,0.0,0.0,0.0,0.0,0.0,0.0,0.0,0.0,0.0,0.0,0.0,0.0,0.0,0.0,0.0,0.0,0.0,0.0,0.0,0.0,0.0,0.0,0.0,0.0,0.0,0.0,0.0,0.0,0.0,0.0,0.0,0.0,0.0,0.0,0.0,0.0,0.0,0.0,0.0,0.0,0.0,0.0,0.0,0.0,0.0,0.0,0.0,0.0,0.0,0.0,0.0,0.0,0.0,0.0,0.0,0.0,0.0,0.0,0.0,0.0,0.0,0.0,-1.125,-1.161,-1.2253,0.0,-1.2909,-1.2836,-1.3236,-1.257,-1.1769,-1.0769,0.0,0.0,0.0,0.0,0.0,0.0,0.0,0.0,0.0,0.0,0.0,0.0,0.0,0.0,0.0,0.0,0.0,0.0,0.0,0.0,0.0,0.0,0.0,0.0,0.0,0.0,0.0,0.0,0.0,0.0,0.0,0.0,0.0,0.0,0.0,0.0,0.0,0.0,0.0,0.0,0.0,0.0,0.0,0.0,0.0,0.0,0.0,0.0,0.0,0.0,0.0,0.0,0.0,0.0,0.0,0.0,0.0,0.0,0.0,0.0,0.0,0.0,0.0,0.0,0.0,0.0,0.0,0.0,0.0,0.0,0.0,0.0,0.0,0.0,0.0,0.0,0.0,0.0,0.0,0.0,0.0,0.0,0.0,0.0,0.0,0.0,0.0,0.0,0.0,0.0,0.0,0.0,0.0,0.0,0.0,0.0,0.0,0.0,0.0,0.0,0.0,0.0,-1.1021,-1.1336,-1.2032,-1.3572,-1.3081,-1.3075,-1.3843,-1.2788,-1.1546,0.0,0.0,0.0,0.0,0.0,0.0,0.0,0.0,0.0,0.0,0.0,0.0,0.0,0.0,0.0,0.0,0.0,0.0,0.0,0.0,0.0,0.0,0.0,0.0,0.0,0.0,0.0,0.0,0.0,0.0,0.0,0.0,0.0,0.0,0.0,0.0,0.0,0.0,0.0,0.0,0.0,0.0,0.0,0.0,0.0,0.0,0.0,0.0,0.0,0.0,0.0,0.0,0.0,0.0,0.0,0.0,0.0,0.0,0.0,0.0,0.0,0.0,0.0,0.0,0.0,0.0,0.0,0.0,0.0,0.0,0.0,0.0,0.0,0.0,0.0,0.0,0.0,0.0,0.0,0.0,0.0,0.0,0.0,0.0,0.0,0.0,0.0,0.0,0.0,0.0,0.0,0.0,0.0,0.0,0.0,0.0,0.0,0.0,0.0,0.0,0.0,0.0,0.0,0.0,-1.1675,-1.2426,-1.292,-1.2774,-1.2634,-1.2656,-1.1956,-1.107,-0.9882,0.0,0.0,0.0,0.0,0.0,0.0,0.0,0.0,0.0,0.0,0.0,0.0,0.0,0.0,0.0,0.0,0.0,0.0,0.0,0.0,0.0,0.0,0.0,0.0,0.0,0.0,0.0,0.0,0.0,0.0,0.0,0.0,0.0,0.0,0.0,0.0,0.0,0.0,0.0,0.0,0.0,0.0,0.0,0.0,0.0,0.0,0.0,0.0,0.0,0.0,0.0,0.0,0.0,0.0,0.0,0.0,0.0,0.0,0.0,0.0,0.0,0.0,0.0,0.0,0.0,0.0,0.0,0.0,0.0,0.0,0.0,0.0,0.0,0.0,0.0,0.0,0.0,0.0,0.0,0.0,0.0,0.0,0.0,0.0,0.0,0.0,0.0,0.0,0.0,0.0,0.0,0.0,0.0,0.0,0.0,0.0,0.0,0.0,0.0,0.0,0.0,0.0,-1.0691,-1.1642,-1.2433,-1.2917,-1.2781,-1.2667,-1.2738,-1.2102,-1.1243,-1.0166,0.0,0.0,0.0,0.0,0.0,0.0,0.0,0.0,0.0,0.0,0.0,0.0,0.0,0.0,0.0,0.0,0.0,0.0,0.0,0.0,0.0,0.0,0.0,0.0,0.0,0.0,0.0,0.0,0.0,0.0,0.0,0.0,0.0,0.0,0.0,0.0,0.0,0.0,0.0,0.0,0.0,0.0,0.0,0.0,0.0,0.0,0.0,0.0,0.0,0.0,0.0,0.0,0.0,0.0,0.0,0.0,0.0,0.0,0.0,0.0,0.0,0.0,0.0,0.0,0.0,0.0,0.0,0.0,0.0,0.0,0.0,0.0,0.0,0.0,0.0,0.0,0.0,0.0,0.0,0.0,0.0,0.0,0.0,0.0,0.0,0.0,0.0,0.0,0.0,0.0,0.0,0.0,0.0,0.0,0.0,0.0,0.0,0.0,0.0,0.0,0.0,0.0,-1.0662,-1.1516,-1.2444,-1.3341,-1.3249,-1.3238,-1.3531,-1.283,-1.1911,-1.084,0.0,0.0,0.0,0.0,0.0,0.0,0.0,0.0,0.0,0.0,0.0,0.0,0.0,0.0,0.0,0.0,0.0,0.0,0.0,0.0,0.0,0.0,0.0,0.0,0.0,0.0,0.0,0.0,0.0,0.0,0.0,0.0,0.0,0.0,0.0,0.0,0.0,0.0,0.0,0.0,0.0,0.0,0.0,0.0,0.0,0.0,0.0,0.0,0.0,0.0,0.0,0.0,0.0,0.0,0.0,0.0,0.0,0.0,0.0,0.0,0.0,0.0,0.0,0.0,0.0,0.0,0.0,0.0,0.0,0.0,0.0,0.0,0.0,0.0,0.0,0.0,0.0,0.0,0.0,0.0,0.0,0.0,0.0,0.0,0.0,0.0,0.0,0.0,0.0,0.0,0.0,0.0,0.0,0.0,0.0,0.0,0.0,0.0,0.0,0.0,0.0,0.0,-1.0688,-1.2058,-1.3124,-1.352,-1.352,-1.3406,-1.32,-1.2765,-1.2074,-1.1085,0.0,0.0,0.0,0.0,0.0,0.0,0.0,0.0,0.0,0.0,0.0,0.0,0.0,0.0,0.0,0.0,0.0,0.0,0.0,0.0,0.0,0.0,0.0,0.0,0.0,0.0,0.0,0.0,0.0,0.0,0.0,0.0,0.0,0.0,0.0,0.0,0.0,0.0,0.0,0.0,0.0,0.0,0.0,0.0,0.0,0.0,0.0,0.0,0.0,0.0,0.0,0.0,0.0,0.0,0.0,0.0,0.0,0.0,0.0,0.0,0.0,0.0,0.0,0.0,0.0,0.0,0.0,0.0,0.0,0.0,0.0,0.0,0.0,0.0,0.0,0.0,0.0,0.0,0.0,0.0,0.0,0.0,0.0,0.0,0.0,0.0,0.0,0.0,0.0,0.0,0.0,0.0,0.0,0.0,0.0,0.0,0.0,0.0,0.0,0.0,0.0,0.0,-1.078,-1.2216,-1.327,-1.3493,-1.3316,-1.3246,-1.3254,-1.2857,-1.233,-1.1656,-1.077,0.0,0.0,0.0,0.0,0.0,0.0,0.0,0.0,0.0,0.0,0.0,0.0,0.0,0.0,0.0,0.0,0.0,0.0,0.0,0.0,0.0,0.0,0.0,0.0,0.0,0.0,0.0,0.0,0.0,0.0,0.0,0.0,0.0,0.0,0.0,0.0,0.0,0.0,0.0,0.0,0.0,0.0,0.0,0.0,0.0,0.0,0.0,0.0,0.0,0.0,0.0,0.0,0.0,0.0,0.0,0.0,0.0,0.0,0.0,0.0,0.0,0.0,0.0,0.0,0.0,0.0,0.0,0.0,0.0,0.0,0.0,0.0,0.0,0.0,0.0,0.0,0.0,0.0,0.0,0.0,0.0,0.0,0.0,0.0,0.0,0.0,0.0,-0.955,-1.1904,0.0,0.0,0.0,0.0,0.0,0.0,0.0,0.0,0.0,0.0,0.0,0.0,-0.9637,-1.1831,-1.3011,-1.2325,-1.2818,-1.3252,-1.3401,-1.3009,-1.2618,-1.2259,-1.1411,-1.0645,0.0,0.0,0.0,0.0,0.0,0.0,0.0,0.0,0.0,0.0,0.0,0.0,0.0,0.0,0.0,0.0,0.0,0.0,0.0,0.0,0.0,0.0,0.0,0.0,0.0,0.0,0.0,0.0,0.0,0.0,0.0,0.0,-0.0302,-0.1016,0.0,0.0,0.0,0.0,0.0,0.0,0.0,0.0,0.0,0.0,0.0,0.0,0.0,0.0,0.0,0.0,0.0,0.0,0.0,0.0,0.0,0.0,0.0,0.0,0.0,0.0,0.0,0.0,0.0,0.0,0.0,0.0,0.0,0.0,0.0,0.0,0.0,0.0,0.0,0.0,0.0,0.0,0.0,0.0,0.0,0.0,0.0,0.0,0.0,0.0,-0.2185,-0.5736,-0.9551,-1.2218,0.0,-1.0533,-0.9371,-0.9759,0.0,0.0,0.0,0.0,0.0,0.0,0.0,0.0,-0.4758,-0.9553,-1.1616,-0.8083,-1.1154,-1.3526,-1.3107,-1.3129,-1.2868,-1.2509,-1.1976,-1.1357,-1.065,-1.0155,0.0,0.0,0.0,0.0,0.0,0.0,0.0,0.0,0.0,0.0,0.0,0.0,0.0,0.0,0.0,0.0,0.0,0.0,0.0,0.0,0.0,0.0,0.0,0.0,0.0,0.0,0.0,0.0,0.0,0.0,0.0,0.0,0.0,0.0,0.0,0.0,0.0,0.0,0.0,0.0,0.0,0.0,0.0,0.0,0.0,0.0,0.0,0.0,0.0,0.0,0.0,0.0,0.0,0.0,0.0,0.0,0.0,0.0,0.0,0.0,0.0,0.0,0.0,0.0,0.0,0.0,0.0,0.0,0.0,0.0,0.0,0.0,0.0,0.0,0.0,0.0,0.0,0.0,0.0,0.0,0.0,0.0,0.0,-0.3319,-0.7663,-1.2212,-1.2264,-1.1319,-0.9853,0.0,-0.8342,-0.8731,-0.7921,0.0,0.0,0.0,0.0,0.0,-0.1797,-0.4102,-0.617,-0.7597,-0.8976,-1.073,-1.3155,-1.3183,-1.2971,-1.2748,-1.2346,-1.1889,-1.1368,-1.0753,-1.0074,0.0,0.0,0.0,0.0,0.0,0.0,0.0,0.0,0.0,0.0,0.0,0.0,0.0,0.0,0.0,0.0,0.0,0.0,0.0,0.0,0.0,0.0,0.0,0.0,0.0,0.0,0.0,0.0,0.0,0.0,0.0,0.0,0.0,0.0,0.0,0.0,0.0,0.0,0.0,0.0,0.0,0.0,0.0,0.0,0.0,0.0,0.0,0.0,0.0,0.0,0.0,0.0,0.0,0.0,0.0,0.0,0.0,0.0,0.0,0.0,0.0,0.0,0.0,0.0,0.0,0.0,0.0,0.0,0.0,0.0,0.0,0.0,0.0,0.0,0.0,0.0,0.0,0.0,0.0,0.0,0.0,-0.5263,-0.1084,-0.4593,-0.9631,-1.1754,-1.1859,-1.057,0.0,-0.7095,-0.7073,-0.6029,0.0,0.0,0.0,0.0,0.0,0.0,0.0,-0.1631,-0.5898,-0.7626,-0.98,-1.3225,-1.3405,-1.3206,-1.2912,-1.2591,-1.2232,-1.1846,-1.1275,-1.0699,0.0,0.0,0.0,0.0,0.0,0.0,0.0,0.0,0.0,0.0,0.0,0.0,0.0,0.0,0.0,0.0,0.0,0.0,0.0,0.0,0.0,0.0,0.0,0.0,0.0,0.0,0.0,0.0,0.0,0.0,0.0,0.0,0.0,0.0,0.0,0.0,0.0,0.0,0.0,0.0,0.0,0.0,0.0,0.0,0.0,0.0,0.0,0.0,0.0,0.0,0.0,0.0,0.0,0.0,0.0,0.0,0.0,0.0,0.0,0.0,0.0,0.0,0.0,0.0,0.0,0.0,0.0,0.0,0.0,0.0,0.0,0.0,0.0,0.0,0.0,0.0,0.0,0.0,0.0,0.0,-0.0178,-0.0364,-0.0,-0.0368,-0.2771,-1.0475,-1.1917,-1.1218,0.0,-0.4834,-0.053,-0.0341,0.0,0.0,-0.0,0.0,0.0,0.0,0.0,-0.0202,-0.0404,-0.7695,-1.2936,-1.3488,-1.3587,-1.3363,-1.3162,-1.27,-1.2341,-1.1868,-1.1683,-1.1204,-1.0384,-0.9976,0.0,0.0,0.0,0.0,0.0,0.0,0.0,0.0,0.0,0.0,0.0,0.0,0.0,0.0,0.0,0.0,0.0,0.0,0.0,0.0,0.0,0.0,0.0,0.0,0.0,0.0,0.0,0.0,0.0,0.0,0.0,0.0,0.0,0.0,0.0,0.0,0.0,0.0,0.0,0.0,0.0,0.0,0.0,0.0,0.0,0.0,0.0,0.0,0.0,0.0,0.0,0.0,0.0,0.0,0.0,0.0,0.0,0.0,0.0,0.0,0.0,0.0,0.0,0.0,0.0,0.0,0.0,0.0,0.0,0.0,0.0,0.0,0.0,0.0,0.0,0.0,0.0,0.0,0.0,0.0,0.0,0.0,-0.0725,-0.3798,-0.413,-0.3932,-0.359,-0.5182,-0.5103,-0.0681,0.0,0.0,0.0,0.0,0.0,0.0,0.0,0.0,0.0,-0.2807,-0.5707,-0.88,-0.9082,-0.9173,-0.9119,-0.8699,-0.9607,-1.1947,-1.1798,-1.1253,-1.0975,-1.0506,-0.9606,0.0,0.0,0.0,0.0,0.0,0.0,0.0,0.0,0.0,0.0,0.0,0.0,0.0,0.0,0.0,0.0,0.0,0.0,0.0,0.0,0.0,0.0,0.0,0.0,0.0,0.0,0.0,0.0,0.0,0.0,0.0,0.0,0.0,0.0,0.0,0.0,0.0,0.0,0.0,0.0,0.0,0.0,0.0,0.0,0.0,0.0,0.0,0.0,0.0,0.0,0.0,0.0,0.0,0.0,0.0,0.0,0.0,0.0,0.0,0.0,0.0,0.0,0.0,0.0,0.0,0.0,0.0,0.0,0.0,0.0,0.0,0.0,0.0,0.0,0.0,0.0,0.0,0.0,0.0,0.0,0.0,0.0,0.0,0.0,0.0,0.0,-0.358,-0.5147,-0.0695,0.0,0.0,0.0,0.0,0.0,0.0,0.0,0.0,0.0,0.0,-0.12,-0.4009,-0.4324,-0.4469,-0.4483,-0.4332,-0.6058,-1.0178,-1.016,-1.0219,-1.0826,-1.0396,-0.9633,-0.884,0.0,0.0,0.0,0.0,0.0,0.0,0.0,0.0,0.0,0.0,0.0,0.0,0.0,0.0,0.0,0.0,0.0,0.0,0.0,0.0,0.0,0.0,0.0,0.0,0.0,0.0,0.0,0.0,0.0,0.0,0.0,0.0,0.0,0.0,0.0,0.0,0.0,0.0,0.0,0.0,0.0,0.0,0.0,0.0,0.0,0.0,0.0,0.0,0.0,0.0,0.0,0.0,0.0,0.0,0.0,0.0,0.0,0.0,0.0,0.0,0.0,0.0,0.0,0.0,0.0,0.0,0.0,0.0,0.0,0.0,0.0,0.0,0.0,0.0,0.0,0.0,0.0,0.0,0.0,0.0,0.0,0.0,0.0,0.0,0.0,0.0,0.0,0.0,0.0,0.0,0.0,0.0,0.0,0.0,0.0,0.0,0.0,0.0,0.0,0.0,0.0,0.0,0.0,0.0,-0.197,-0.6464,-0.6779,-0.8072,-1.0281,-0.972,-0.9459,-0.9699,0.0,0.0,0.0,0.0,0.0,0.0,0.0,0.0,0.0,0.0,0.0,0.0,0.0,0.0,0.0,0.0,0.0,0.0,0.0,0.0,0.0,0.0,0.0,0.0,0.0,0.0,0.0,0.0,0.0,0.0,0.0,0.0,0.0,0.0,0.0,0.0,0.0,0.0,0.0,0.0,0.0,0.0,0.0,0.0,0.0,0.0,0.0,0.0,0.0,0.0,0.0,0.0,0.0,0.0,0.0,0.0,0.0,0.0,0.0,0.0,0.0,0.0,0.0,0.0,0.0,0.0,0.0,0.0,0.0,0.0,0.0,0.0,0.0,0.0,0.0,0.0,0.0,0.0,0.0,0.0,0.0,0.0,0.0,0.0,0.0,0.0,0.0,0.0,0.0,0.0,0.0,0.0,0.0,0.0,0.0,0.0,0.0,0.0,0.0,0.0,0.0,0.0,0.0,0.0,-0.0534,-0.1794,-0.5828,-0.8722,-0.9855,-1.0193,-1.0434,0.0,0.0,0.0,0.0,0.0,0.0,0.0,0.0,0.0,0.0,0.0,0.0,0.0,0.0,0.0,0.0,0.0,0.0,0.0,0.0,0.0,0.0,0.0,0.0,0.0,0.0,0.0,0.0,0.0,0.0,0.0,0.0,0.0,0.0,0.0,0.0,0.0,0.0,0.0,0.0,0.0,0.0,0.0,0.0,0.0,0.0,0.0,0.0,0.0,0.0,0.0,0.0,0.0,0.0,0.0,0.0,0.0,0.0,0.0,0.0,0.0,0.0,0.0,0.0,0.0,0.0,0.0,0.0,0.0,0.0,0.0,0.0,0.0,0.0,0.0,0.0,0.0,0.0,0.0,0.0,0.0,0.0,0.0,0.0,0.0,0.0,0.0,0.0,0.0,0.0,0.0,0.0,0.0,0.0,0.0,0.0,0.0,0.0,0.0,0.0,0.0,0.0,0.0,0.0,0.0,0.0,0.0,0.0,0.0,0.0,0.0,0.0,0.0,0.0,0.0,0.0,-1.1188,-1.1134,0.0,0.0,0.0,0.0,0.0,0.0,0.0,0.0,0.0,0.0,0.0,0.0,0.0,0.0,0.0,0.0,0.0,0.0,0.0,0.0,0.0,0.0,0.0,0.0,0.0,0.0,0.0,0.0,0.0,0.0,0.0,0.0,0.0,0.0,0.0,0.0,0.0,0.0,0.0,0.0,0.0,0.0,0.0,0.0,0.0,0.0,0.0,0.0,0.0,0.0,0.0,0.0,0.0,0.0,0.0,0.0,0.0,0.0,0.0,0.0,0.0,0.0,0.0,0.0,0.0,0.0,0.0,0.0,0.0,0.0,0.0,0.0,0.0,0.0,0.0,0.0,0.0,0.0,0.0,0.0,0.0,0.0,0.0,0.0,0.0,0.0,0.0,0.0,0.0,0.0,0.0,0.0,0.0,0.0,0.0,0.0,0.0,0.0,0.0,0.0,0.0,0.0,-0.1208,-0.376,-0.3767,-0.5845,-0.9826,-1.0344,-1.1226,-1.2465,-1.14,-1.14,0.0,0.0,0.0,0.0,0.0,0.0,0.0,0.0,0.0,0.0,0.0,0.0,0.0,0.0,0.0,0.0,0.0,0.0,0.0,0.0,0.0,0.0,0.0,0.0,0.0,0.0,0.0,0.0,0.0,0.0,0.0,0.0,0.0,0.0,0.0,0.0,0.0,0.0,0.0,0.0,0.0,0.0,0.0,0.0,0.0,0.0,0.0,0.0,0.0,0.0,0.0,0.0,0.0,0.0,0.0,0.0,0.0,0.0,0.0,0.0,0.0,0.0,0.0,0.0,0.0,0.0,0.0,0.0,0.0,0.0,0.0,0.0,0.0,0.0,0.0,0.0,0.0,0.0,0.0,0.0,0.0,0.0,0.0,0.0,0.0,0.0,0.0,0.0,0.0,0.0,0.0,0.0,0.0,0.0,0.0,0.0,0.0,0.0,0.0,0.0,0.0,0.0,-0.0189,-0.0754,-0.0765,-0.1353,-0.2137,-0.5618,-0.7547,-0.776,-1.0936,-1.2626,0.0,0.0,0.0,0.0,0.0,0.0,0.0,0.0,0.0,0.0,0.0,0.0,0.0,0.0,0.0,0.0,0.0,0.0,0.0,0.0,0.0,0.0,0.0,0.0,0.0,0.0,0.0,0.0,0.0,0.0,0.0,0.0,0.0,0.0,0.0,0.0,0.0,0.0,0.0,0.0,0.0,0.0,0.0,0.0,0.0,0.0,0.0,0.0,0.0,0.0,0.0,0.0,0.0,0.0,0.0,0.0,0.0,0.0,0.0,0.0,0.0,0.0,0.0,0.0,0.0,0.0,0.0,0.0,0.0,0.0,0.0,0.0,0.0,0.0,0.0,0.0,0.0,0.0,0.0,0.0,0.0,0.0,0.0,0.0,0.0,0.0,0.0,0.0,0.0,0.0,0.0,0.0,0.0,0.0,0.0,0.0,0.0,0.0,0.0,0.0,0.0,0.0,0.0,0.0,0.0,0.0,-0.0,-0.4306,-0.6431,-0.6433,-0.8843,-0.9932,0.0,0.0,0.0,0.0,0.0,0.0,0.0,0.0,0.0,0.0,0.0,0.0,0.0,0.0,0.0,0.0,0.0,0.0,0.0,0.0,0.0,0.0,0.0,0.0,0.0,0.0,0.0,0.0,0.0,0.0,0.0,0.0,0.0,0.0,0.0,0.0,0.0,0.0,0.0,0.0,0.0,0.0,0.0,0.0,0.0,0.0,0.0,0.0,0.0,0.0,0.0,0.0,0.0,0.0,0.0,0.0,0.0,0.0,0.0,0.0,0.0,0.0,0.0,0.0,0.0,0.0,0.0,0.0,0.0,0.0,0.0,0.0,0.0,0.0,0.0,0.0,0.0,0.0,0.0,0.0,0.0,0.0,0.0,0.0,0.0,0.0,0.0,0.0,0.0,0.0,0.0,0.0,0.0,0.0,0.0,0.0,0.0,0.0,0.0,0.0,0.0,0.0,0.0,0.0,0.0,0.0,-0.0,-0.3525,-0.523,-0.5058,-0.5313,-0.5307,0.0,0.0,0.0,0.0,0.0,0.0,0.0,0.0,0.0,0.0,0.0,0.0,0.0,0.0,0.0,0.0,0.0,0.0,0.0,0.0,0.0,0.0,0.0,0.0,0.0,0.0,0.0,0.0,0.0,0.0,0.0,0.0,0.0,0.0,0.0,0.0,0.0,0.0,0.0,0.0,0.0,0.0,0.0,0.0,0.0,0.0,0.0,0.0,0.0,0.0,0.0,0.0,0.0,0.0,0.0,0.0,0.0,0.0,0.0,0.0,0.0,0.0,0.0,0.0,0.0,0.0,0.0,0.0,0.0,0.0,0.0,0.0,0.0,0.0,0.0,0.0,0.0,0.0,0.0,0.0,0.0,0.0,0.0,0.0,0.0,0.0,0.0,0.0,0.0,0.0,0.0,0.0,0.0,0.0,0.0,0.0,0.0,0.0,0.0,0.0,0.0,0.0,0.0,0.0,0.0,0.0,-0.0,-0.0419,-0.0631,-0.0632,-0.0849,-0.0639,0.0,0.0,0.0,0.0,0.0,0.0,0.0,0.0,0.0,0.0,0.0,0.0,0.0,0.0,0.0,0.0,0.0,0.0,0.0,0.0,0.0,0.0,0.0,0.0,0.0,0.0,0.0,0.0,0.0,0.0,0.0,0.0,0.0,0.0,0.0,0.0,0.0,0.0,0.0,0.0,0.0,0.0,0.0,0.0,0.0,0.0,0.0,0.0,0.0,0.0,0.0,0.0,0.0,0.0,0.0,0.0,0.0,0.0,0.0,0.0,0.0,0.0,0.0,0.0,0.0,0.0,0.0,0.0,0.0,0.0,0.0,0.0,0.0,0.0,0.0,0.0,0.0,0.0,0.0,0.0,0.0,0.0,0.0,0.0,0.0,0.0,0.0,0.0,0.0,0.0,0.0,0.0,0.0,0.0,0.0,0.0,0.0,0.0,0.0,0.0,0.0,0.0,0.0,0.0,0.0,0.0,0.0,0.0,0.0,0.0,0.0,0.0,0.0,0.0,0.0,0.0,0.0,0.0,0.0,0.0,0.0,0.0,0.0,0.0,0.0,0.0,0.0,0.0,0.0,0.0,0.0,0.0,0.0,0.0,0.0,0.0,0.0,0.0,0.0,0.0,0.0,0.0,0.0,0.0,0.0,0.0,0.0,0.0,0.0,0.0,0.0,0.0,0.0,0.0,0.0,0.0,0.0,0.0,0.0,0.0,0.0,0.0,0.0,0.0,0.0,0.0,0.0,0.0,0.0,0.0,0.0,0.0,0.0,0.0,0.0,0.0,0.0,0.0,0.0,0.0,0.0,0.0,0.0,0.0,0.0,0.0,0.0,0.0,0.0,0.0,0.0,0.0,0.0,0.0,0.0,0.0,0.0,0.0,0.0,0.0,0.0,0.0,0.0,0.0,0.0,0.0,0.0,0.0,0.0,0.0,0.0,0.0,0.0,0.0,0.0,0.0,0.0,0.0,0.0,0.0,0.0,0.0,0.0,0.0,0.0,0.0,0.0,0.0,0.0,0.0,0.0,0.0,0.0,0.0,0.0,0.0,0.0,0.0,0.0,0.0,0.0,0.0,0.0,0.0,0.0,0.0,0.0,0.0,0.0,0.0,0.0,0.0,0.0,0.0,0.0,0.0,0.0,0.0,0.0,0.0,0.0,0.0,0.0,0.0,0.0,0.0,0.0,0.0,0.0,0.0,0.0,0.0,0.0,0.0,0.0,0.0,0.0,0.0,0.0,0.0,0.0,0.0,0.0,0.0,0.0,0.0,0.0,0.0,0.0,0.0,0.0,0.0,0.0,0.0,0.0,0.0,0.0,0.0,0.0,0.0,0.0,0.0,0.0,0.0,0.0,0.0,0.0,0.0,0.0,0.0,0.0,0.0,0.0,0.0,0.0,0.0,0.0,0.0,0.0,0.0,0.0,0.0,0.0,0.0,0.0,0.0,0.0,0.0,0.0,0.0,0.0,0.0,0.0,0.0,0.0,0.0,0.0,0.0,0.0,0.0,0.0,0.0,0.0,0.0,0.0,0.0,0.0,0.0,0.0,0.0,0.0,0.0,0.0,0.0,0.0,0.0,0.0,0.0,0.0,0.0,0.0,0.0,0.0,0.0,0.0,0.0,0.0,0.0,0.0,0.0,0.0,0.0,0.0,0.0,0.0,0.0,0.0,0.0,0.0,0.0,0.0,0.0,0.0,0.0,0.0,0.0,0.0,0.0,0.0,0.0,0.0,0.0,0.0,0.0,0.0,0.0,0.0,0.0,0.0,0.0,0.0,0.0,0.0,0.0,0.0,0.0,0.0,0.0,0.0,0.0,0.0,0.0,0.0,0.0,0.0,0.0,0.0,0.0,0.0,0.0,0.0,0.0,0.0,0.0,0.0,0.0,0.0,0.0,0.0,0.0,0.0,0.0,0.0,0.0,0.0,0.0,0.0,0.0,0.0,0.0,0.0,0.0,0.0,0.0,0.0,0.0,0.0,0.0,0.0,0.0,0.0,0.0,0.0,0.0,0.0,0.0,0.0,0.0,0.0,0.0,0.0,0.0,0.0,0.0,0.0,0.0,0.0,0.0,0.0,0.0,0.0,0.0,0.0,0.0,0.0,0.0,0.0,0.0,0.0,0.0,0.0,0.0,0.0,0.0,0.0,0.0,0.0,0.0,0.0,0.0,0.0,0.0,0.0,0.0,0.0,0.0,0.0,0.0,0.0,0.0,0.0,0.0,0.0,0.0,0.0,0.0,0.0,0.0,0.0,0.0,0.0,0.0,0.0,0.0,0.0,0.0,0.0,0.0,0.0,0.0,0.0,0.0,0.0,0.0,0.0,0.0,0.0,0.0,0.0,0.0,0.0,0.0,0.0,0.0,0.0,0.0,0.0,0.0,0.0,0.0,0.0,0.0,0.0,0.0,0.0,0.0,0.0,0.0,0.0,0.0,0.0,0.0,0.0,0.0,0.0,0.0,0.0,0.0,0.0,0.0,0.0,0.0,0.0,0.0,0.0,0.0,0.0,0.0,0.0,0.0,0.0,0.0,0.0,0.0,0.0,0.0,0.0,0.0,0.0,0.0,0.0,0.0,0.0,0.0,0.0,0.0,0.0,0.0,0.0,0.0,0.0,0.0,0.0,0.0,0.0,0.0,0.0,0.0,0.0,0.0,0.0,0.0,0.0,0.0,0.0,0.0,0.0,0.0,0.0,0.0,0.0,0.0,0.0,0.0,0.0,0.0,0.0,0.0,0.0,0.0,0.0,0.0,0.0,0.0,0.0,0.0,0.0,0.0,0.0,0.0,0.0,0.0,0.0,0.0,0.0,0.0,0.0,0.0,0.0,0.0,0.0,0.0,0.0,0.0,0.0,0.0,0.0,0.0,0.0,0.0,0.0,0.0,0.0,0.0,0.0,0.0,0.0,0.0,0.0,0.0,0.0,0.0,0.0,0.0,0.0,0.0,0.0,0.0,0.0,0.0,0.0,0.0,0.0,0.0,0.0,0.0,0.0,0.0,0.0,0.0,0.0,0.0,0.0,0.0,0.0,0.0,0.0,0.0,0.0,0.0,0.0,0.0,0.0,0.0,0.0,0.0,0.0,0.0,0.0,0.0,0.0,0.0,0.0,0.0,0.0,0.0,0.0,0.0,0.0,0.0,0.0,0.0,0.0,0.0,0.0,0.0,0.0,0.0,0.0,0.0,0.0,0.0,0.0,0.0,0.0,0.0,0.0,0.0,0.0,0.0,0.0,0.0,0.0,0.0,0.0,0.0,0.0,0.0,0.0,0.0,0.0,0.0,0.0,0.0,0.0,0.0,0.0,0.0,0.0,0.0,0.0,0.0,0.0,0.0,0.0,0.0,0.0,0.0,0.0,0.0,0.0,0.0,0.0,0.0,0.0,0.0,0.0,0.0,0.0,0.0,0.0,0.0,0.0,0.0,0.0,0.0,0.0,0.0,0.0,0.0,0.0,0.0,0.0,0.0,0.0,0.0,0.0,0.0,0.0,0.0,0.0,0.0,0.0,0.0,0.0,0.0,0.0,0.0,0.0,0.0,0.0,0.0,0.0,0.0,0.0,0.0,0.0,0.0,0.0,0.0,0.0,0.0,0.0,0.0,0.0,0.0,0.0,0.0,0.0,0.0,0.0,0.0,0.0,0.0,0.0,0.0,0.0,0.0,0.0,0.0,0.0,0.0,0.0,0.0,0.0,0.0,0.0,0.0,0.0,0.0,0.0,0.0,0.0,0.0,0.0,0.0,0.0,0.0,0.0,0.0,0.0,0.0,0.0,0.0,0.0,0.0,0.0,0.0,0.0,0.0,0.0,0.0,0.0,0.0,0.0,0.0,0.0,0.0,0.0,0.0,0.0,0.0,0.0,0.0,0.0,0.0,0.0,0.0,0.0,0.0,0.0,0.0,0.0,0.0,0.0,0.0,0.0,0.0,0.0,0.0,0.0,0.0,0.0,0.0,0.0,0.0,0.0,0.0,0.0,0.0,0.0,0.0,0.0,0.0,0.0,0.0,0.0,0.0,0.0,0.0,0.0,0.0,0.0,0.0,0.0,0.0,0.0,0.0,0.0,0.0,0.0,0.0,0.0,0.0,0.0,0.0,0.0,0.0,0.0,0.0,0.0,0.0,0.0,0.0,0.0,0.0,0.0,0.0,0.0,0.0,0.0,0.0,0.0,0.0,0.0,0.0,0.0,0.0,0.0,0.0,0.0,0.0,0.0,0.0,0.0,0.0,0.0,0.0,0.0,0.0,0.0,0.0,0.0,0.0,0.0,0.0,0.0,0.0,0.0,0.0,0.0,0.0,0.0,0.0,0.0,0.0,0.0,0.0,0.0,0.0,0.0,0.0,0.0,0.0,0.0,0.0,0.0,0.0,0.0,0.0,0.0,0.0,0.0,0.0,0.0,0.0,0.0,0.0,0.0,0.0,0.0,0.0,0.0,0.0,0.0,0.0,0.0,0.0,0.0,0.0,0.0,0.0,0.0,0.0,0.0,0.0,0.0,0.0,0.0,0.0,0.0,0.0,0.0,0.0,0.0,0.0,0.0,0.0,0.0,0.0,0.0,0.0,0.0,0.0,0.0,0.0,0.0,0.0,0.0,0.0,0.0,0.0,0.0,0.0,0.0,0.0,0.0,0.0,0.0,0.0,0.0,0.0,0.0,0.0,0.0,0.0,0.0,0.0,0.0,0.0,0.0,0.0,0.0,0.0,0.0,0.0,0.0,0.0,0.0,0.0,0.0,0.0,0.0,0.0,0.0,0.0,0.0,0.0,0.0,0.0,0.0,0.0,0.0,0.0,0.0,0.0,0.0,0.0,0.0,0.0,0.0,0.0,0.0,0.0,0.0,0.0,0.0,0.0,0.0,0.0,0.0,0.0,0.0,0.0,0.0,0.0,0.0,0.0,0.0,0.0,0.0,0.0,0.0,0.0,0.0,0.0,0.0,0.0,0.0,0.0,0.0,0.0,0.0,0.0,0.0,0.0,0.0,0.0,0.0,0.0,0.0,0.0,0.0,0.0,0.0,0.0,0.0,0.0,0.0,0.0,0.0,0.0,0.0,0.0,0.0,0.0,0.0,0.0,0.0,0.0,0.0,0.0,0.0,0.0,0.0,0.0,0.0,0.0,0.0,0.0,0.0,0.0,0.0,0.0,0.0,0.0,0.0,0.0,0.0,0.0,0.0,0.0,0.0,0.0,0.0,0.0,0.0,0.0,0.0,0.0,0.0,0.0,0.0,0.0,0.0,0.0,0.0,0.0,0.0,0.0,0.0,0.0,0.0,0.0,0.0,0.0,0.0,0.0,0.0,0.0,0.0,0.0,0.0,0.0,0.0,0.0,0.0,0.0,0.0,0.0,0.0,0.0,0.0,0.0,0.0,0.0,0.0,0.0,0.0,0.0,0.0,0.0,0.0,0.0,0.0,0.0,0.0,0.0,0.0,0.0,0.0,0.0,0.0,0.0,0.0,0.0,0.0,0.0,0.0,0.0,0.0,0.0,0.0,0.0,0.0,0.0,0.0,0.0,0.0,0.0,0.0,0.0,0.0,0.0,0.0,0.0,0.0,0.0,0.0,0.0,0.0,0.0,0.0,0.0,0.0,0.0,0.0,0.0,0.0,0.0,0.0,0.0,0.0,0.0,0.0,0.0,0.0,0.0,0.0,0.0,0.0,0.0,0.0,0.0,0.0,0.0,0.0,0.0,0.0,0.0,0.0,0.0,0.0,0.0,0.0,0.0,0.0,0.0,0.0,0.0,0.0,0.0,0.0,0.0,0.0,0.0,0.0,0.0,0.0,0.0,0.0,0.0,0.0,0.0,0.0,0.0,0.0,0.0,0.0,0.0,0.0,0.0,0.0,0.0,0.0,0.0,0.0,0.0,0.0,0.0,0.0,0.0,0.0,0.0,0.0,0.0,0.0,0.0,0.0,0.0,0.0,0.0,0.0,0.0,0.0,0.0,0.0,0.0,0.0,0.0,0.0,0.0,0.0,0.0,0.0,0.0,0.0,0.0,0.0,0.0,0.0,0.0,0.0,0.0,0.0,0.0,0.0,0.0,0.0,0.0,0.0,0.0,0.0,0.0,0.0,0.0,0.0,0.0,0.0,0.0,0.0,0.0,0.0,0.0,0.0,0.0,0.0,0.0,0.0,0.0,0.0,0.0,0.0,0.0,0.0,0.0,0.0,0.0,0.0,0.0,0.0,0.0,0.0,0.0,0.0,0.0,0.0,0.0,0.0,0.0,0.0,0.0,0.0,0.0,0.0,0.0,0.0,0.0,0.0,0.0,0.0,0.0,0.0,0.0,0.0,0.0,0.0,0.0,0.0,0.0,0.0,0.0,0.0,0.0,0.0,0.0,0.0,0.0,0.0,0.0,0.0,0.0,0.0,0.0,0.0,0.0,0.0,0.0,0.0,0.0,0.0,0.0,0.0,0.0,0.0,0.0,0.0,0.0,0.0,0.0,0.0,0.0,0.0,0.0,0.0,0.0,0.0,0.0,0.0,0.0,0.0,0.0,0.0,0.0,0.0,0.0,0.0,0.0,0.0,0.0,0.0,0.0,0.0,0.0,0.0,0.0,0.0,0.0,0.0,0.0,0.0,0.0,0.0,0.0,0.0,0.0,0.0,0.0,0.0,0.0,0.0,0.0,0.0,0.0,0.0,0.0,0.0,0.0,0.0,0.0,0.0,0.0,0.0,0.0,0.0,0.0,0.0,0.0,0.0,0.0,0.0,0.0,0.0,0.0,0.0,0.0,0.0,0.0,0.0,0.0,0.0,0.0,0.0,0.0,0.0,0.0,0.0,0.0,0.0,0.0,0.0,0.0,0.0,0.0,0.0,0.0,0.0,0.0,0.0,0.0,0.0,0.0,0.0,0.0,0.0,0.0,0.0,0.0,0.0,0.0,0.0,0.0,0.0,0.0,0.0,0.0,0.0,0.0,0.0,0.0,0.0,0.0,0.0,0.0,0.0,0.0,0.0,0.0,0.0,0.0,0.0,0.0,0.0,0.0,0.0,0.0,0.0,0.0,0.0,0.0,0.0,0.0,0.0,0.0,0.0,0.0,0.0,0.0,0.0,0.0,0.0,0.0,0.0,0.0,0.0,0.0,0.0,0.0,0.0,0.0,0.0,0.0,0.0,0.0,0.0,0.0,0.0,0.0,0.0,0.0,0.0,0.0,0.0,0.0,0.0,0.0,0.0,0.0,0.0,0.0,0.0,0.0,0.0,0.0,0.0,0.0,0.0,0.0,0.0,0.0,0.0,0.0,0.0,0.0,0.0,0.0,0.0,0.0,0.0,0.0,0.0,0.0,0.0,0.0,0.0,0.0,0.0,0.0,0.0,0.0,0.0,0.0,0.0,0.0,0.0,0.0,0.0,0.0,0.0,0.0,0.0,0.0,0.0,0.0,0.0,0.0,0.0,0.0,0.0,0.0,0.0,0.0,0.0,0.0,0.0,0.0,0.0,0.0,0.0,0.0,0.0,0.0,0.0,0.0,0.0,0.0,0.0,0.0,0.0,0.0,0.0,0.0,0.0,0.0,0.0,0.0,0.0,0.0,0.0,0.0,0.0,0.0,0.0,0.0,0.0,0.0,0.0,0.0,0.0,0.0,0.0,0.0,0.0,0.0,0.0,0.0,0.0,0.0,0.0,0.0,0.0,0.0,0.0,0.0,0.0,0.0,0.0,0.0,0.0,0.0,0.0,0.0,0.0,0.0,0.0,0.0,0.0,0.0,0.0,0.0,0.0,0.0,0.0,0.0,0.0,0.0,0.0,0.0,0.0,0.0,0.0,0.0,0.0,0.0,0.0,0.0,0.0,0.0,0.0,0.0,0.0,0.0,0.0,0.0,0.0,0.0,0.0,0.0,0.0,0.0,0.0,0.0,0.0,0.0,0.0,0.0,0.0,0.0,0.0,0.0,0.0,0.0,0.0,0.0,0.0,0.0,0.0,0.0,0.0,0.0,0.0,0.0,0.0,0.0,0.0,0.0,0.0,0.0,0.0,0.0,0.0,0.0,0.0,0.0,0.0,0.0,0.0,0.0,0.0,0.0,0.0,0.0,0.0,0.0,0.0,0.0,0.0,0.0,0.0,0.0,0.0,0.0,0.0,0.0,0.0,0.0,0.0,0.0,0.0,0.0,0.0,0.2556,0.2074,0.1131,0.0226,0.0,0.0,0.0,0.0,0.0,0.0,0.0,0.0,0.0,0.0,0.0,0.0,0.0,0.0,0.0,0.0,0.0,0.0,0.0,0.0,0.0,0.0,0.0,0.0,0.0,0.0,0.0,0.0,0.0,0.0,0.0,0.0,0.0,0.0,0.0,0.0,0.0,0.0,0.0,0.0,0.0,0.0,0.0,0.0,0.0,0.0,0.0,0.0,0.0,0.0,0.0,0.0,0.0,0.0,0.0,0.0,0.0,0.0,0.0,0.0,0.0,0.0,0.0,0.0,0.0,0.0,0.0,0.0,0.0,0.0,0.0,0.0,0.0,0.0,0.0,0.0,0.0,0.0,0.0,0.0,0.0,0.0,0.0,0.0,0.0,0.0,0.0,0.0,0.0,0.0,0.0,0.0,0.0,0.0,0.0,0.0,0.0,0.0,0.0,0.0,0.0,0.0,0.0,0.0,0.0,0.0,0.0,0.0,0.3761,0.3263,0.2522,0.1603,0.0908,0.0,0.0,0.0,0.0,0.0,0.0,0.0,0.0,0.0,0.0,0.0,0.0,0.0,0.0,0.0,0.0,0.0,0.0,0.0,0.0,0.0,0.0,0.0,0.0,0.0,0.0,0.0,0.0,0.0,0.0,0.0,0.0,0.0,0.0,0.0,0.0,0.0,0.0,0.0,0.0,0.0,0.0,0.0,0.0,0.0,0.0,0.0,0.0,0.0,0.0,0.0,0.0,0.0,0.0,0.0,0.0,0.0,0.0,0.0,0.0,0.0,0.0,0.0,0.0,0.0,0.0,0.0,0.0,0.0,0.0,0.0,0.0,0.0,0.0,0.0,0.0,0.0,0.0,0.0,0.0,0.0,0.0,0.0,0.0,0.0,0.0,0.0,0.0,0.0,0.0,0.0,0.0,0.0,0.0,0.0,0.0,0.0,0.0,0.0,0.0,0.0241,0.0,0.0,0.0,0.0,0.0,0.0,0.3788,0.3757,0.3719,0.3663,0.2262,0.0224,0.0,0.0,0.0,0.0,0.0,0.0,0.0,0.0,0.0,0.0,0.0,0.0,0.0,0.0,0.0,0.0,0.0,0.0,0.0,0.0,0.0,0.0,0.0,0.0,0.0,0.0,0.0,0.0,0.0,0.0,0.0,0.0,0.0,0.0,0.0,0.0,0.0,0.0,0.0,0.0,0.0,0.0,0.0,0.0,0.0,0.0,0.0,0.0,0.0,0.0,0.0,0.0,0.0,0.0,0.0,0.0,0.0,0.0,0.0,0.0,0.0,0.0,0.0,0.0,0.0,0.0,0.0,0.0,0.0,0.0,0.0,0.0,0.0,0.0,0.0,0.0,0.0,0.0,0.0,0.0,0.0,0.0,0.0,0.0,0.0,0.0,0.0,0.0,0.0,0.0,0.0,0.0,0.0,0.0,0.0,0.0,0.0,0.0,0.0948,0.287,0.0,0.0,0.0,0.0,0.0,0.3817,0.3835,0.3795,0.3726,0.3708,0.3202,0.247,0.0673,0.0,0.0,0.0,0.0,0.0,0.0,0.0,0.0,0.0,0.0,0.0,0.0,0.0,0.0,0.0,0.0,0.0,0.0,0.0,0.0,0.0,0.0,0.0,0.0,0.0,0.0,0.0,0.0,0.0,0.0,0.0,0.0,0.0,0.0,0.0,0.0,0.0,0.0,0.0,0.0,0.0,0.0,0.0,0.0,0.0,0.0,0.0,0.0,0.0,0.0,0.0,0.0,0.0,0.0,0.0,0.0,0.0,0.0,0.0,0.0,0.0,0.0,0.0,0.0,0.0,0.0,0.0,0.0,0.0,0.0,0.0,0.0,0.0,0.0,0.0,0.0,0.0,0.0,0.0,0.0,0.0,0.0,0.0,0.0,0.0,0.0,0.0,0.0,0.0,0.0,0.0,0.0,0.0,0.0,0.0,0.0,0.1176,0.2367,0.3817,0.3786,0.0,0.0,0.0,0.0,0.3855,0.3844,0.3803,0.3744,0.3701,0.3645,0.3369,0.1572,0.0449,0.0,0.0,0.0,0.0,0.0,0.0,0.0,0.0,0.0,0.0,0.0,0.0,0.0,0.0,0.0,0.0,0.0,0.0,0.0,0.0,0.0,0.0,0.0,0.0,0.0,0.0,0.0,0.0,0.0,0.0,0.0,0.0,0.0,0.0,0.0,0.0,0.0,0.0,0.0,0.0,0.0,0.0,0.0,0.0,0.0,0.0,0.0,0.0,0.0,0.0,0.0,0.0,0.0,0.0,0.0,0.0,0.0,0.0,0.0,0.0,0.0,0.0,0.0,0.0,0.0,0.0,0.0,0.0,0.0,0.0,0.0,0.0,0.0,0.0,0.0,0.0,0.0,0.0,0.0,0.0,0.0,0.0,0.0,0.0,0.0,0.0,0.0,0.0,0.0,0.0,0.0,0.0,0.0,0.0235,0.07,0.2817,0.3786,0.381,0.3782,0.0,0.0,0.0,0.0,0.3887,0.3848,0.3803,0.3757,0.3681,0.3625,0.3369,0.2245,0.1122,0.0,0.0,0.0,0.0,0.0,0.0,0.0,0.0,0.0,0.0,0.0,0.0,0.0,0.0,0.0,0.0,0.0,0.0,0.0,0.0,0.0,0.0,0.0,0.0,0.0,0.0,0.0,0.0,0.0,0.0,0.0,0.0,0.0,0.0,0.0,0.0,0.0,0.0,0.0,0.0,0.0,0.0,0.0,0.0,0.0,0.0,0.0,0.0,0.0,0.0,0.0,0.0,0.0,0.0,0.0,0.0,0.0,0.0,0.0,0.0,0.0,0.0,0.0,0.0,0.0,0.0,0.0,0.0,0.0,0.0,0.0,0.0,0.0,0.0,0.0,0.0,0.0,0.0,0.0,0.0,0.0,0.0,0.0,0.0,0.0,0.0,0.0,0.0,0.0,0.0,0.0,0.0,0.0,0.1177,0.3294,0.3533,0.3775,0.3779,0.3775,0.3775,0.0,0.0,0.3848,0.3835,0.3873,0.3827,0.3733,0.3719,0.3663,0.3369,0.2245,0.1122,0.0,0.0,0.0,0.0,0.0,0.0,0.0,0.0,0.0,0.0,0.0,0.0,0.0,0.0,0.0,0.0,0.0,0.0,0.0,0.0,0.0,0.0,0.0,0.0,0.0,0.0,0.0,0.0,0.0,0.0,0.0,0.0,0.0,0.0,0.0,0.0,0.0,0.0,0.0,0.0,0.0,0.0,0.0,0.0,0.0,0.0,0.0,0.0,0.0,0.0,0.0,0.0,0.0,0.0,0.0,0.0,0.0,0.0,0.0,0.0,0.0,0.0,0.0,0.0,0.0,0.0,0.0,0.0,0.0,0.0,0.0,0.0,0.0,0.0,0.0,0.0,0.0,0.0,0.0,0.0,0.0,0.0,0.0,0.0,0.0,0.0,0.0,0.0,0.0,0.0,0.0,0.0,0.0,0.1184,0.3772,0.3772,0.3772,0.3772,0.3788,0.3803,0.382,0.0,0.3862,0.3862,0.3842,0.3788,0.3723,0.3692,0.3643,0.3369,0.1572,0.0449,0.0,0.0,0.0,0.0,0.0,0.0,0.0,0.0,0.0,0.0,0.0,0.0,0.0,0.0,0.0,0.0,0.0,0.0,0.0,0.0,0.0,0.0,0.0,0.0,0.0,0.0,0.0,0.0,0.0,0.0,0.0,0.0,0.0,0.0,0.0,0.0,0.0,0.0,0.0,0.0,0.0,0.0,0.0,0.0,0.0,0.0,0.0,0.0,0.0,0.0,0.0,0.0,0.0,0.0,0.0,0.0,0.0,0.0,0.0,0.0,0.0,0.0,0.0,0.0,0.0,0.0,0.0,0.0,0.0,0.0,0.0,0.0,0.0,0.0,0.0,0.0,0.0,0.0,0.0,0.0,0.0,0.0,0.0,0.0,0.0,0.0,0.0,0.0,0.0,0.0,0.0241,0.0957,0.0957,0.1666,0.33,0.3771,0.3772,0.3772,0.3803,0.3824,0.3838,0.3859,0.3876,0.388,0.3824,0.3775,0.3733,0.3677,0.3405,0.2919,0.0898,0.0,0.0,0.0,0.0,0.0,0.0,0.0,0.0,0.0,0.0,0.0,0.0,0.0,0.0,0.0,0.0,0.0,0.0,0.0,0.0,0.0,0.0,0.0,0.0,0.0,0.0,0.0,0.0,0.0,0.0,0.0,0.0,0.0,0.0,0.0,0.0,0.0,0.0,0.0,0.0,0.0,0.0,0.0,0.0,0.0,0.0,0.0,0.0,0.0,0.0,0.0,0.0,0.0,0.0,0.0,0.0,0.0,0.0,0.0,0.0,0.0,0.0,0.0,0.0,0.0,0.0,0.0,0.0,0.0,0.0,0.0,0.0,0.0,0.0,0.0,0.0,0.0,0.0,0.0,0.0,0.0,0.0,0.0,0.0,0.0,0.0,0.0,0.0,0.0,0.0,0.0,0.1215,0.3617,0.3617,0.3112,0.2121,0.33,0.3772,0.3772,0.3803,0.3803,0.3782,0.3866,0.3873,0.3827,0.3876,0.3844,0.3764,0.3733,0.2979,0.1796,0.0449,0.0,0.0,0.0,0.0,0.0,0.0,0.0,0.0,0.0,0.0,0.0,0.0,0.0,0.0,0.0,0.0,0.0,0.0,0.0,0.0,0.0,0.0,0.0,0.0,0.0,0.0,0.0,0.0,0.0,0.0,0.0,0.0,0.0,0.0,0.0,0.0,0.0,0.0,0.0,0.0,0.0,0.0,0.0,0.0,0.0,0.0,0.0,0.0,0.0,0.0,0.0,0.0,0.0,0.0,0.0,0.0,0.0,0.0,0.0,0.0,0.0,0.0,0.0,0.0,0.0,0.0,0.0,0.0,0.0,0.0,0.0,0.0,0.0,0.0,0.0,0.0,0.0,0.0,0.0,0.0,0.0,0.0,0.0,0.0,0.0,0.0,0.0,0.0,0.0,0.0,0.0,0.1217,0.3862,0.3844,0.3585,0.3086,0.3581,0.3828,0.3828,0.3859,0.3866,0.3855,0.3869,0.3873,0.3869,0.3835,0.3788,0.3737,0.3667,0.3405,0.2713,0.1575,0.1122,0.1122,0.0224,0.0,0.0,0.0,0.0,0.0,0.0,0.0,0.0,0.0,0.0,0.0,0.0,0.0,0.0,0.0,0.0,0.0,0.0,0.0,0.0,0.0,0.0,0.0,0.0,0.0,0.0,0.0,0.0,0.0,0.0,0.0,0.0,0.0,0.0,0.0,0.0,0.0,0.0,0.0,0.0,0.0,0.0,0.0,0.0,0.0,0.0,0.0,0.0,0.0,0.0,0.0,0.0,0.0,0.0,0.0,0.0,0.0,0.0,0.0,0.0,0.0,0.0,0.0,0.0,0.0,0.0,0.0,0.0,0.0,0.0,0.0,0.0,0.0,0.0,0.0,0.0,0.0,0.0,0.0,0.0,0.0,0.0,0.0,0.0,0.0,0.0,0.0,0.0,0.0,0.3862,0.3842,0.3831,0.3831,0.3869,0.388,0.3859,0.3891,0.3898,0.3891,0.3876,0.3883,0.3898,0.381,0.3748,0.3705,0.3643,0.3625,0.3405,0.2703,0.2473,0.2254,0.1352,0.0676,0.0,0.0,0.0,0.0,0.0,0.0,0.0,0.0,0.0,0.0,0.0,0.0,0.0,0.0,0.0,0.0,0.0,0.0,0.0,0.0,0.0,0.0,0.0,0.0,0.0236,0.1178,0.0471,0.0,0.0,0.0,0.0,0.0,0.0,0.0,0.0,0.0,0.0,0.0,0.0,0.0,0.0,0.0,0.0,0.0,0.0,0.0,0.0,0.0,0.0,0.0,0.0,0.0,0.0,0.0,0.0,0.0,0.0,0.0,0.0,0.0,0.0,0.0,0.0,0.0,0.0,0.0,0.0,0.0,0.0,0.0,0.0,0.0,0.0,0.0,0.0,0.0,0.0,0.0,0.0,0.0,0.0,0.0,0.0,0.0,0.0,0.0,0.0,0.0,0.3862,0.3862,0.3862,0.3859,0.3922,0.3918,0.3862,0.3891,0.3887,0.3862,0.3891,0.3904,0.3898,0.381,0.3737,0.3681,0.3681,0.3663,0.3632,0.36,0.3611,0.3636,0.3639,0.2046,0.0,0.0,0.0,0.0,0.0,0.0,0.0,0.0,0.0,0.0,0.0,0.0,0.0,0.0,0.0,0.0,0.0,0.0,0.0,0.0,0.0,0.0,0.0,0.0,0.0943,0.3535,0.1649,0.0,0.0,0.0,0.0,0.0,0.0,0.0,0.0,0.0,0.0,0.0,0.0,0.0,0.0,0.0,0.0,0.0,0.0,0.0,0.0,0.0,0.0,0.0,0.0,0.0,0.0,0.0,0.0,0.0,0.0,0.0,0.0,0.0,0.0,0.0,0.0,0.0,0.0,0.0,0.0,0.0,0.0,0.0,0.0,0.0,0.0,0.0,0.0,0.0,0.0,0.0,0.0,0.0,0.0,0.0,0.0,0.0,0.0,0.0,0.0,0.0,0.3831,0.3831,0.3842,0.3859,0.3898,0.3918,0.3922,0.3932,0.3932,0.3922,0.3911,0.3914,0.3929,0.3842,0.3768,0.3712,0.3688,0.3688,0.3694,0.3667,0.366,0.3667,0.3667,0.275,0.1603,0.1374,0.0684,0.0,0.0,0.0,0.0,0.0,0.0,0.0,0.0,0.0,0.0,0.0,0.0,0.0,0.0,0.0,0.0,0.0,0.1414,0.2121,0.0236,0.0707,0.1885,0.3535,0.3064,0.2121,0.0236,0.0,0.0,0.0,0.1643,0.2588,0.2571,0.2582,0.1885,0.0,0.0,0.0,0.0,0.0,0.0,0.0,0.0,0.0,0.0,0.0,0.0,0.0,0.0,0.0,0.0,0.0,0.0,0.0,0.0,0.0,0.0,0.0,0.0,0.0,0.0,0.0,0.0,0.0,0.0,0.0,0.0,0.0,0.0,0.0,0.0,0.0,0.0,0.0,0.0,0.0,0.0,0.0,0.0,0.0,0.0,0.0,0.0,0.0,0.0,0.0,0.3851,0.3851,0.3859,0.3876,0.3907,0.3925,0.3932,0.3943,0.3949,0.3949,0.3929,0.3904,0.3876,0.3844,0.3793,0.3723,0.3692,0.3699,0.3723,0.3677,0.3677,0.3699,0.3699,0.3466,0.3004,0.2773,0.207,0.1371,0.0914,0.0683,0.0683,0.0687,0.0692,0.0696,0.07,0.0704,0.0707,0.0236,0.0,0.0,0.0,0.0707,0.1414,0.1414,0.2356,0.2828,0.1649,0.1649,0.2356,0.3535,0.3772,0.33,0.1649,0.1414,0.141,0.1398,0.2807,0.3748,0.3726,0.3744,0.3053,0.1649,0.0471,0.0472,0.1425,0.0473,0.0,0.0,0.0,0.0,0.0,0.0,0.0,0.0,0.0,0.0,0.0,0.0,0.0,0.0,0.0,0.0,0.0,0.0,0.0,0.0,0.0,0.0,0.0,0.0,0.0,0.0,0.0,0.0,0.0,0.0,0.0,0.0,0.0,0.0,0.0,0.0,0.0,0.0,0.0,0.0,0.0,0.0,0.0,0.0,0.0,0.0,0.3898,0.39,0.3904,0.0,0.3936,0.3932,0.3904,0.3932,0.3943,0.3943,0.3943,0.388,0.3775,0.3831,0.3803,0.3723,0.3694,0.3705,0.3723,0.3667,0.3681,0.373,0.373,0.373,0.373,0.373,0.3708,0.3684,0.2533,0.206,0.2054,0.2085,0.2084,0.2078,0.2111,0.2119,0.1884,0.0707,0.0236,0.0236,0.0236,0.1885,0.3771,0.3771,0.2828,0.2357,0.3535,0.2828,0.2357,0.3535,0.3772,0.3772,0.3772,0.3772,0.3757,0.3726,0.3726,0.3726,0.3723,0.3726,0.3739,0.3768,0.1649,0.1414,0.3771,0.1649,0.0236,0.0236,0.0236,0.0237,0.0238,0.0237,0.0238,0.0,0.0,0.0,0.0,0.0,0.0,0.0,0.0,0.0,0.0,0.0,0.0,0.0,0.0,0.0,0.0,0.0,0.0,0.0,0.0,0.0,0.0,0.0,0.0,0.0,0.0,0.0,0.0,0.0,0.0,0.0,0.0,0.0,0.0,0.0,0.0,0.0,0.0,0.3866,0.3835,0.388,0.3904,0.0,0.3936,0.3932,0.3904,0.3911,0.39,0.388,0.3904,0.3859,0.3775,0.381,0.3786,0.3726,0.3719,0.3737,0.3757,0.3719,0.373,0.3761,0.3761,0.3761,0.3761,0.3761,0.3739,0.3716,0.3483,0.3233,0.3217,0.3251,0.3241,0.3233,0.3284,0.3284,0.3276,0.3058,0.2121,0.1414,0.1414,0.1885,0.2593,0.3535,0.3535,0.3535,0.3771,0.3535,0.3535,0.3771,0.3772,0.3772,0.3772,0.3772,0.375,0.3694,0.3712,0.3715,0.3692,0.3712,0.3739,0.3768,0.33,0.33,0.3771,0.33,0.3064,0.3064,0.3084,0.3095,0.3101,0.2875,0.1924,0.0,0.0,0.0,0.0,0.0,0.0,0.0,0.0,0.0,0.0,0.0,0.0,0.0,0.0,0.0,0.0,0.0,0.0,0.0,0.0,0.0,0.0,0.0,0.0,0.0,0.0,0.0,0.0,0.0,0.0,0.0,0.0,0.0,0.0,0.0,0.0,0.0,0.388,0.3866,0.3838,0.3855,0.3876,0.3904,0.3891,0.3876,0.3862,0.3876,0.3866,0.3842,0.3855,0.3827,0.3772,0.3788,0.3775,0.3748,0.3733,0.3744,0.3768,0.3737,0.3748,0.3772,0.3772,0.3772,0.3772,0.3772,0.3761,0.3748,0.3748,0.3726,0.3708,0.3739,0.3716,0.3692,0.3737,0.3726,0.3708,0.3723,0.329,0.2842,0.283,0.2835,0.3078,0.3775,0.3772,0.3772,0.3772,0.3772,0.3772,0.3772,0.3772,0.3772,0.3772,0.3772,0.3754,0.3708,0.3715,0.3719,0.3705,0.3716,0.3739,0.3768,0.3772,0.3772,0.3772,0.3772,0.3772,0.3772,0.3786,0.3795,0.3795,0.381,0.3104,0.1671,0.0477,0.0,0.0,0.0,0.0,0.0,0.0,0.0,0.0,0.0,0.0,0.0,0.0,0.0,0.0,0.0,0.0,0.0,0.0,0.0,0.0,0.0,0.0,0.0,0.0,0.0,0.0,0.0,0.0,0.0,0.0,0.0,0.0,0.0,0.3887,0.388,0.3887,0.3876,0.3851,0.3827,0.3844,0.3898,0.3842,0.3813,0.381,0.3827,0.3827,0.381,0.3803,0.3788,0.3772,0.3761,0.3757,0.3761,0.373,0.3737,0.3761,0.3737,0.3748,0.3772,0.3772,0.3772,0.3772,0.3772,0.3772,0.3772,0.3764,0.3744,0.3723,0.3748,0.3716,0.3681,0.3708,0.3705,0.3688,0.3681,0.3748,0.3799,0.3772,0.3782,0.3793,0.3768,0.3764,0.3764,0.3772,0.3772,0.3772,0.3772,0.3772,0.3772,0.3772,0.3772,0.3761,0.373,0.3726,0.3726,0.3726,0.3726,0.3739,0.3768,0.3772,0.3772,0.3772,0.3772,0.3772,0.3772,0.3772,0.3772,0.3772,0.3772,0.3775,0.3779,0.1662,0.0477,0.0,0.0,0.0,0.0,0.0,0.0,0.0,0.0,0.0,0.0,0.0,0.0,0.0,0.0,0.0,0.0,0.0,0.0,0.0,0.0,0.0,0.0,0.0,0.0,0.0,0.0,0.0,0.0,0.0,0.0,0.0,0.3835,0.3817,0.3788,0.3813,0.3827,0.3824,0.382,0.3835,0.3866,0.3831,0.3803,0.3779,0.3754,0.3757,0.3775,0.375,0.375,0.3768,0.3716,0.3708,0.373,0.3699,0.3705,0.3733,0.3726,0.3748,0.3772,0.3772,0.3772,0.3772,0.3772,0.3772,0.3768,0.3739,0.3712,0.3688,0.3692,0.3667,0.3649,0.3677,0.3701,0.3712,0.3688,0.373,0.3768,0.3739,0.3737,0.3737,0.3733,0.3733,0.3739,0.3768,0.3772,0.3772,0.3772,0.3772,0.3772,0.3772,0.3772,0.3761,0.373,0.3726,0.3726,0.3726,0.3726,0.3739,0.3768,0.3772,0.3772,0.3772,0.3772,0.3772,0.3772,0.3772,0.3772,0.3772,0.3772,0.3786,0.381,0.3552,0.2133,0.0,0.0,0.0,0.0,0.0,0.0,0.0,0.0,0.0,0.0,0.0,0.0,0.0,0.0,0.0,0.0,0.0,0.0,0.0,0.0,0.0,0.0,0.0,0.0,0.0,0.0,0.0,0.0,0.0,0.0,0.3842,0.3793,0.3775,0.3795,0.3761,0.3748,0.3764,0.3733,0.3723,0.3733,0.3754,0.375,0.3719,0.3688,0.3684,0.3694,0.3681,0.3692,0.3719,0.3692,0.3699,0.3726,0.3712,0.3715,0.3726,0.3726,0.3748,0.3772,0.3772,0.3761,0.375,0.3764,0.3761,0.3744,0.373,0.3715,0.3701,0.3684,0.366,0.3636,0.3632,0.3639,0.3643,0.3611,0.3639,0.367,0.3674,0.3715,0.3748,0.373,0.3726,0.373,0.3744,0.3761,0.3772,0.3772,0.3772,0.3772,0.3772,0.3772,0.3768,0.3754,0.375,0.375,0.375,0.375,0.3757,0.3772,0.3772,0.3772,0.3772,0.3772,0.3772,0.3772,0.3772,0.3772,0.3772,0.3772,0.3779,0.3793,0.3795,0.3084,0.0,0.0,0.0,0.0,0.0,0.0,0.0,0.0,0.0,0.0,0.0,0.0,0.0,0.0,0.0,0.0,0.0,0.0,0.0,0.0,0.0,0.0,0.0,0.0,0.0,0.0,0.0,0.0,0.0,0.0,0.3838,0.3768,0.3748,0.3793,0.3719,0.3692,0.3715,0.367,0.3636,0.3614,0.3681,0.3699,0.367,0.3652,0.3639,0.3625,0.3632,0.3652,0.3681,0.3674,0.3688,0.3712,0.3705,0.3708,0.3715,0.3715,0.373,0.3748,0.3748,0.3739,0.373,0.3744,0.3737,0.3723,0.3699,0.3701,0.3705,0.366,0.3645,0.3639,0.36,0.3596,0.3594,0.3562,0.3572,0.3596,0.3628,0.3694,0.3744,0.373,0.3726,0.373,0.3737,0.3757,0.3772,0.3772,0.3772,0.3772,0.3772,0.3772,0.3772,0.3772,0.3772,0.3772,0.3772,0.3772,0.3772,0.3772,0.3772,0.3772,0.3772,0.3772,0.3772,0.3772,0.3772,0.3772,0.3772,0.3772,0.3772,0.3772,0.3795,0.3793,0.0,0.0,0.0,0.0,0.0,0.0,0.0,0.0,0.0,0.0,0.0,0.0,0.0,0.0,0.0,0.0,0.0,0.0,0.0,0.0,0.0,0.0,0.0,0.0,0.0,0.0,0.0,0.0,0.0,0.0,0.3779,0.3744,0.3726,0.373,0.3699,0.3681,0.3684,0.3681,0.3636,0.3551,0.3639,0.3667,0.3639,0.3667,0.3645,0.3594,0.3621,0.3652,0.3677,0.3649,0.3656,0.3681,0.3652,0.3656,0.3684,0.3684,0.3684,0.3684,0.3684,0.3701,0.3723,0.3694,0.3705,0.3708,0.3625,0.3639,0.3663,0.3576,0.3614,0.3663,0.3604,0.3611,0.3625,0.3594,0.3589,0.3596,0.3628,0.3663,0.3694,0.3719,0.3726,0.3737,0.3764,0.3772,0.3772,0.3772,0.3772,0.3772,0.3772,0.3772,0.3772,0.3772,0.3772,0.3772,0.3772,0.3772,0.3772,0.3772,0.3772,0.3772,0.3772,0.3772,0.3772,0.3772,0.3772,0.3772,0.3772,0.3772,0.3772,0.3772,0.3772,0.3772,0.0,0.0,0.0,0.0,0.0,0.0,0.0,0.0,0.0,0.0,0.0,0.0,0.0,0.0,0.0,0.0,0.0,0.0,0.0,0.0,0.0,0.0,0.0,0.0,0.0,0.0,0.0,0.0,0.0,0.0,0.8398,0.6913,0.5962,0.5997,0.433,0.3614,0.3594,0.3594,0.3576,0.3544,0.3596,0.3618,0.3607,0.3618,0.3611,0.3589,0.3621,0.3643,0.3649,0.3639,0.3652,0.3681,0.367,0.3684,0.3708,0.3688,0.3694,0.3708,0.3688,0.3674,0.367,0.3677,0.3663,0.3636,0.3621,0.3636,0.3645,0.3611,0.3625,0.3643,0.36,0.3583,0.3576,0.3562,0.3562,0.3569,0.36,0.3632,0.366,0.3692,0.3699,0.3705,0.3737,0.3744,0.373,0.3692,0.3733,0.375,0.3692,0.3737,0.3772,0.3772,0.3772,0.3772,0.3772,0.3772,0.3772,0.3772,0.3772,0.3772,0.3772,0.3772,0.3772,0.3772,0.3772,0.3772,0.3772,0.3772,0.3772,0.3772,0.3772,0.3772,0.0,0.0,0.0,0.0,0.0,0.0,0.0,0.0,0.0,0.0,0.0,0.0,0.0,0.0,0.0,0.0,0.0,0.0,0.0,0.0,0.0,0.0,0.0,0.0,0.0,0.0,0.0,0.0,0.0,0.0,1.09,0.9362,0.7941,0.7278,0.4961,0.3565,0.3516,0.3544,0.3544,0.3516,0.3565,0.3589,0.3589,0.36,0.3604,0.3607,0.3625,0.3628,0.3621,0.3632,0.3652,0.3681,0.367,0.3692,0.3723,0.3681,0.3677,0.3692,0.366,0.3643,0.3636,0.3645,0.3621,0.3594,0.36,0.3611,0.3618,0.3607,0.3611,0.3614,0.3596,0.3569,0.354,0.3534,0.3538,0.3551,0.3583,0.3621,0.3656,0.3677,0.3705,0.3726,0.3726,0.3744,0.3737,0.3674,0.3726,0.375,0.3688,0.3733,0.3772,0.3772,0.3772,0.3772,0.3772,0.3772,0.3772,0.3772,0.3772,0.3772,0.3772,0.3772,0.3775,0.3786,0.3786,0.3793,0.3799,0.3782,0.3772,0.3772,0.3772,0.3772,0.0,0.0,0.0,0.0,0.0,0.0,0.0,0.0,0.0,0.0,0.0,0.0,0.0,0.0,0.0,0.0,0.0,0.0,0.0,0.0,0.0,0.0,0.0,0.0,0.0,0.0,0.0,0.0,0.0,1.1122,1.1122,1.0963,0.97,0.7166,0.4709,0.3549,0.346,0.3544,0.3544,0.3461,0.3549,0.3589,0.3589,0.3621,0.3636,0.3636,0.3636,0.3621,0.3594,0.3625,0.3652,0.3677,0.3649,0.3674,0.3719,0.3659,0.3639,0.3632,0.36,0.3611,0.3632,0.36,0.3589,0.3583,0.3555,0.3565,0.3583,0.3551,0.3565,0.3589,0.3587,0.3565,0.3534,0.3506,0.3524,0.3551,0.3583,0.3636,0.3681,0.3681,0.3754,0.3795,0.3737,0.3775,0.3793,0.3733,0.3748,0.3768,0.3768,0.3768,0.3768,0.3772,0.3772,0.3772,0.3772,0.3772,0.3772,0.3772,0.3772,0.3772,0.3775,0.3775,0.3788,0.3817,0.3817,0.3831,0.3859,0.3803,0.3775,0.3775,0.3772,0.3772,0.7551,0.0,0.0,0.0,0.0,0.0,0.0,0.0,0.0,0.0,0.0,0.0,0.0,0.0,0.0,0.0,0.0,0.0,0.0,0.0,0.0,0.0,0.0,0.0,0.0,0.0,0.0,0.0,1.638,1.6272,1.6163,1.2625,0.8717,0.4668,0.3777,0.3534,0.349,0.3534,0.3544,0.352,0.3569,0.358,0.3558,0.3611,0.3625,0.3604,0.3649,0.3663,0.3656,0.3643,0.3652,0.3681,0.3694,0.3726,0.375,0.3692,0.3681,0.3692,0.3614,0.3625,0.366,0.3607,0.3576,0.3555,0.3549,0.3538,0.3531,0.354,0.3551,0.3549,0.3506,0.3487,0.3479,0.3471,0.3493,0.3524,0.3551,0.3604,0.3649,0.3649,0.3705,0.3739,0.3701,0.3726,0.3723,0.3639,0.3652,0.3674,0.3674,0.3674,0.3699,0.3764,0.3772,0.3772,0.3772,0.3772,0.3782,0.3803,0.3803,0.3813,0.3835,0.3835,0.3838,0.3848,0.3848,0.3851,0.3859,0.3842,0.3835,0.3835,0.3813,0.3803,0.0,0.0,0.0,0.0,0.0,0.0,0.0,0.0,0.0,0.0,0.0,0.0,0.0,0.0,0.0,0.0,0.0,0.0,0.0,0.0,0.0,0.0,0.0,0.0,0.0,0.0,0.0,0.0,1.8443,1.7768,1.6658,1.2762,0.9372,0.6673,0.4671,0.3992,0.5057,0.3992,0.3558,0.3544,0.3576,0.358,0.3565,0.3614,0.3632,0.3628,0.3667,0.3688,0.3699,0.3681,0.3684,0.3701,0.3705,0.3726,0.3744,0.3684,0.3681,0.3694,0.3604,0.3604,0.3632,0.3572,0.3534,0.3509,0.3524,0.3516,0.3509,0.3538,0.3544,0.3531,0.3472,0.3467,0.3476,0.3476,0.3499,0.3527,0.3558,0.3611,0.3649,0.3639,0.3694,0.3733,0.3688,0.3737,0.375,0.366,0.3684,0.3705,0.3694,0.3692,0.3712,0.3764,0.3772,0.3775,0.3788,0.3788,0.3803,0.3831,0.3835,0.3842,0.3859,0.3859,0.3866,0.3876,0.3876,0.3883,0.3898,0.3873,0.3859,0.3859,0.3831,0.3817,0.0,0.0,0.0,0.0,0.0,0.0,0.0,1.011,0.0,0.0,0.0,0.0,0.0,0.0,0.0,0.0,0.0,0.0,0.0,0.0,0.0,0.0,0.0,0.0,0.0,0.0,1.8708,1.8694,1.8423,1.7021,1.4531,1.2284,1.0945,1.0722,0.6493,0.5356,0.7521,0.5356,0.4248,0.4,0.4027,0.3818,0.3596,0.3628,0.366,0.3681,0.3688,0.3705,0.373,0.373,0.3726,0.3719,0.3699,0.3705,0.3719,0.3667,0.3663,0.3677,0.3583,0.3572,0.3594,0.3524,0.3486,0.3471,0.3491,0.3499,0.3502,0.3527,0.3534,0.3524,0.3467,0.3478,0.3502,0.3499,0.352,0.3551,0.358,0.3628,0.3663,0.3636,0.3705,0.375,0.3688,0.3775,0.3824,0.3739,0.3771,0.3799,0.3775,0.3764,0.3764,0.3772,0.3775,0.3788,0.3813,0.382,0.3835,0.3862,0.3862,0.3866,0.3869,0.3869,0.3883,0.3907,0.3907,0.3922,0.3949,0.3893,0.3869,0.3869,0.3842,0.3824,0.0,0.0,0.0,0.0,0.0,0.0,0.0,0.9262,0.0,0.0,0.0,0.0,0.0,0.0,0.0,0.0,0.0,0.0,0.0,0.0,0.0,0.0,0.0,0.0,0.0,0.0,1.8355,1.8233,1.8057,1.6811,1.452,1.3843,1.2699,1.0849,0.9802,0.9576,0.994,0.958,0.83,0.6545,0.655,0.543,0.3628,0.3684,0.3699,0.3684,0.3733,0.3757,0.3761,0.3761,0.3733,0.3694,0.3737,0.3744,0.3726,0.3712,0.3726,0.3737,0.3621,0.3632,0.3677,0.3544,0.3513,0.352,0.3479,0.3465,0.3467,0.3472,0.3475,0.3465,0.343,0.3461,0.3495,0.3472,0.3506,0.3544,0.3551,0.3583,0.3607,0.36,0.3692,0.3744,0.3659,0.3744,0.3803,0.3737,0.3737,0.375,0.3768,0.373,0.3716,0.3768,0.3793,0.381,0.3817,0.3838,0.3862,0.3893,0.3893,0.3907,0.3932,0.3932,0.3936,0.3938,0.3938,0.3943,0.3949,0.3938,0.3932,0.3932,0.39,0.3873,0.0,0.0,0.0,0.0,0.0,0.0,0.0,0.0,0.0,0.0,0.0,0.0,0.0,0.0,0.0,0.0,0.0,0.0,0.0,0.0,0.0,0.0,0.0,0.0,0.0,0.0,1.8091,1.8091,1.8023,1.6792,1.4431,1.4265,1.3796,1.2354,1.1351,1.1372,1.2439,1.1372,1.0104,0.9056,0.9056,0.8397,0.73,0.7393,0.6723,0.555,0.5618,0.4947,0.3772,0.3754,0.3723,0.3684,0.3716,0.3716,0.3699,0.367,0.3677,0.3692,0.36,0.3596,0.3618,0.3513,0.3479,0.3472,0.3444,0.3456,0.348,0.348,0.348,0.3476,0.3461,0.348,0.3502,0.3502,0.3534,0.3565,0.3565,0.3589,0.3607,0.3594,0.3663,0.3716,0.3684,0.3744,0.3788,0.3775,0.3771,0.3779,0.3793,0.3768,0.3761,0.3793,0.3806,0.3824,0.3838,0.3851,0.3873,0.39,0.3904,0.3911,0.3925,0.3929,0.3936,0.3949,0.3949,0.3949,0.3949,0.3949,0.3949,0.3949,0.3904,0.3873,0.0,0.0,0.0,0.0,0.0,1.0216,0.0,0.0,0.0,1.0211,0.0,0.0,0.0,0.0,0.0,0.0,0.0,0.0,0.0,0.0,0.0,0.0,0.0,0.0,0.0,0.0,1.765,1.786,1.7826,1.6834,1.4707,1.4838,1.4867,1.4736,1.3082,1.294,1.4958,1.3202,1.1929,1.1816,1.1816,1.1641,1.1278,1.1122,1.0236,0.815,0.8201,0.7054,0.5178,0.5135,0.5096,0.5068,0.4141,0.3677,0.3667,0.3625,0.3621,0.3636,0.3576,0.3558,0.3551,0.4139,0.4517,0.4698,0.4708,0.4745,0.479,0.437,0.4152,0.3929,0.3718,0.3506,0.3516,0.3538,0.3569,0.3589,0.3589,0.3611,0.3618,0.3594,0.3628,0.3674,0.3701,0.3744,0.3779,0.3795,0.382,0.3831,0.3817,0.382,0.3824,0.3817,0.382,0.3831,0.3848,0.3862,0.3876,0.3893,0.39,0.3904,0.3904,0.3911,0.3925,0.3949,0.3949,0.3949,0.3949,0.3949,0.3949,0.3949,0.39,0.3873,0.0,0.0,0.0,0.0,1.0867,0.0,0.0,0.0,0.0,0.9462,0.0,0.0,0.0,0.0,0.0,0.0,0.0,0.0,0.0,0.0,0.0,0.0,0.0,0.0,0.0,0.0,0.0,1.7073,1.6856,1.6647,1.6796,1.708,1.716,1.7014,1.6935,1.7079,1.7411,1.7314,1.6389,1.4333,1.4333,1.3227,1.1237,1.1245,1.1024,1.0786,1.0794,1.0805,1.0322,1.0243,1.0199,0.9722,0.5298,0.3663,0.3643,0.3663,0.3674,0.3667,0.3607,0.3604,0.3837,0.594,0.8013,0.9679,0.9756,0.9476,0.8982,0.7174,0.6515,0.6057,0.3929,0.352,0.354,0.3544,0.3569,0.3589,0.3589,0.3594,0.3594,0.3589,0.3596,0.3611,0.3639,0.3716,0.3764,0.3739,0.3827,0.3876,0.3824,0.3838,0.3844,0.382,0.3838,0.3844,0.3824,0.3869,0.3891,0.3866,0.3891,0.3904,0.3904,0.3929,0.3947,0.3949,0.3949,0.3949,0.3949,0.3949,0.3949,0.3949,0.3943,0.3925,0.0,0.0,0.0,0.0,0.0,0.0,0.0,0.0,0.9777,0.0,0.0,0.0,0.0,0.0,0.0,0.0,0.0,0.0,0.0,0.0,0.0,0.0,0.0,0.0,0.0,0.0,0.0,0.0,0.0,1.6463,1.691,1.7222,1.7351,1.729,1.7521,1.7717,1.786,1.8023,1.7782,1.6912,1.6912,1.6519,1.5709,1.5709,1.4814,1.3464,1.3402,1.27,1.1331,1.1131,1.1045,1.0804,0.8633,0.77,0.7706,0.7692,0.7692,0.7683,0.7625,0.7825,0.7795,0.8767,0.9783,1.0624,1.0449,1.0445,1.0216,0.9367,0.895,0.875,0.791,0.7712,0.7742,0.778,0.7587,0.7611,0.7611,0.6719,0.5603,0.5603,0.4485,0.3594,0.3607,0.367,0.3726,0.375,0.3795,0.3831,0.3842,0.3851,0.3862,0.3866,0.388,0.3873,0.3844,0.3862,0.3866,0.3838,0.3862,0.3876,0.3876,0.3925,0.3949,0.3949,0.3949,0.3949,0.3949,0.3949,0.3938,0.3922,0.3922,0.3907,0.0,0.0,0.0,0.0,0.0,0.0,0.0,0.0,0.0,0.0,0.0,0.0,0.0,0.0,0.0,0.0,0.0,0.0,0.0,0.0,0.0,0.0,0.0,0.0,0.0,0.0,0.0,0.0,0.0,0.0,1.653,1.6883,1.7073,1.7073,1.7405,1.767,1.786,1.8057,1.8321,1.8654,1.862,1.8674,1.8816,1.8782,1.7884,1.6086,1.5993,1.5053,1.3464,1.3174,1.3048,1.3024,1.281,1.2786,1.262,1.1206,1.073,1.073,1.073,1.1129,1.1717,1.165,1.2045,1.2457,1.2457,1.2491,1.2306,1.1818,1.1614,1.1449,1.0841,1.0616,1.0616,1.071,1.073,1.073,1.073,0.94,0.8057,0.7393,0.6277,0.5153,0.3815,0.3632,0.3688,0.3739,0.3761,0.3793,0.3851,0.3851,0.3859,0.3891,0.3883,0.3869,0.3838,0.3842,0.3838,0.3817,0.3835,0.3855,0.3869,0.3904,0.3929,0.3936,0.3929,0.3925,0.3925,0.3932,0.3925,0.3904,0.3904,0.3887,0.0,0.0,0.0,0.0,0.0,0.0,0.0,0.0,1.048,0.0,0.0,0.0,0.0,0.0,0.0,0.0,0.0,0.0,0.0,0.0,0.0,0.0,0.0,0.0,0.0,0.0,0.0,0.0,0.0,0.0,1.6042,1.6524,1.6761,1.6761,1.7195,1.7568,1.786,1.8158,1.8531,1.8972,1.883,1.883,1.8972,1.883,1.8762,1.8776,1.8755,1.8523,1.8503,1.8208,1.8088,1.8054,1.776,1.7632,1.7197,1.2511,1.073,1.073,1.073,1.2284,1.4292,1.4276,1.5533,1.7425,1.7425,1.7324,1.6798,1.4517,1.4021,1.3336,1.1351,1.0657,1.0616,1.071,1.073,1.073,1.073,1.073,0.9843,0.7611,0.895,0.895,0.4485,0.3614,0.3645,0.3677,0.3733,0.3793,0.3851,0.3835,0.3827,0.3859,0.3835,0.3806,0.3779,0.3803,0.3817,0.3817,0.3817,0.3844,0.39,0.3876,0.3876,0.3904,0.3876,0.3862,0.3862,0.3891,0.3904,0.3904,0.3904,0.3887,0.0,0.0,1.2298,1.1742,0.0,0.0,0.0,0.0,0.0,0.0,0.0,0.0,0.0,0.0,0.0,0.0,0.0,0.0,0.0,0.0,0.0,0.0,0.0,0.0,0.0,0.0,0.0,0.0,0.0,0.0,0.0,1.5859,1.6293,1.6592,1.7032,1.746,1.786,1.8077,1.8443,1.8993,1.883,1.8884,1.9115,1.8871,1.8918,1.9183,1.8884,1.8816,1.8884,1.8477,1.8267,1.8145,1.7948,1.786,1.7639,1.5979,1.5336,1.5413,1.5413,1.6071,1.6741,1.6741,1.7164,1.7792,1.7792,1.7758,1.7498,1.6885,1.6639,1.6401,1.561,1.5383,1.5354,1.5395,1.5413,1.5413,1.5413,1.4292,1.2738,1.2071,1.1172,1.0289,0.8501,0.699,0.5461,0.3904,0.3716,0.3764,0.3824,0.3824,0.3827,0.3855,0.3851,0.3835,0.3803,0.3793,0.3786,0.3786,0.3806,0.3827,0.3844,0.3855,0.3862,0.3873,0.3866,0.3859,0.3859,0.3891,0.3893,0.3876,0.3893,0.3898,1.3397,1.3254,0.0,0.0,1.2169,0.0,0.0,0.0,0.0,0.0,0.0,0.0,0.0,0.0,0.0,0.0,0.0,0.0,0.0,0.0,0.0,0.0,0.0,0.0,0.0,0.0,1.2067,1.2684,0.0,0.0,0.0,0.0,1.5879,1.6273,1.6931,1.7467,1.786,1.8077,1.8443,1.8993,1.883,1.8884,1.9115,1.8816,1.8864,1.9169,1.8782,1.8694,1.8796,1.8409,1.8179,1.8077,1.7914,1.786,1.7846,1.7758,1.7758,1.7772,1.7724,1.7738,1.7792,1.7792,1.7826,1.786,1.786,1.786,1.786,1.786,1.786,1.786,1.786,1.786,1.786,1.786,1.786,1.786,1.786,1.6741,1.5407,1.452,1.299,1.145,0.9653,0.8146,0.6614,0.5278,0.4168,0.375,0.3824,0.3813,0.3817,0.3855,0.3842,0.382,0.3803,0.3782,0.3772,0.3772,0.3788,0.3806,0.3817,0.3824,0.3835,0.3844,0.3835,0.3828,0.3828,0.388,0.3891,0.3859,0.3911,0.3925]}]]